GFSCGP_prec_precacc_150.txt.gz
Total_Precipitation_Accumulation
3.44 2.39 0.95 0.68 0.61 0.34 0.35 0.29 0.60 0.54 0.54 0.62 0.93 0.67 0.24 0.16 0.20 0.18 0.07 0.05 0.21 0.49 1.00 1.21 0.85 0.73 0.83 0.72 0.74 0.52 0.42 0.36 0.40 0.58 0.55 0.74 0.91 1.22 1.39 1.14 0.98 0.97 0.90 0.81
2.56 1.31 0.40 0.55 0.72 0.32 0.23 0.21 0.63 0.83 0.70 0.70 0.63 0.86 0.43 0.17 0.16 0.15 0.17 0.13 0.21 0.45 0.88 1.26 1.66 0.85 0.79 1.39 1.59 1.18 0.84 0.79 0.55 0.66 0.65 0.57 0.83 1.05 1.27 1.46 1.27 1.34 1.30 1.13
1.44 0.68 0.47 0.63 1.03 0.35 0.15 0.09 0.39 1.22 0.92 0.60 0.49 0.58 0.69 0.27 0.15 0.12 0.18 0.22 0.35 0.55 0.58 1.01 1.79 1.34 1.19 1.62 1.68 1.43 1.33 1.16 1.25 1.15 1.45 1.28 1.32 1.26 1.60 1.82 1.62 1.55 1.48 1.43
1.67 0.59 0.43 0.62 1.08 0.39 0.24 0.09 0.39 0.79 0.59 0.50 0.32 0.45 0.41 0.31 0.21 0.15 0.25 0.28 0.31 0.42 0.37 0.57 0.90 1.25 1.40 0.91 0.84 1.33 2.38 2.65 1.70 1.71 2.50 2.94 2.86 2.76 2.54 2.86 2.50 1.92 1.69 1.69
1.58 0.85 0.62 0.71 0.73 0.44 0.42 0.11 0.31 0.37 0.27 0.31 0.22 0.53 0.21 0.23 0.22 0.28 0.28 0.17 0.16 0.17 0.33 0.34 0.53 0.73 0.60 0.49 0.54 0.72 1.26 2.07 2.13 2.05 2.51 2.92 2.59 2.11 1.95 2.06 2.69 2.69 2.44 2.02
0.85 0.80 0.81 0.72 0.48 0.22 0.17 0.13 0.44 0.39 0.48 0.51 0.21 0.27 0.19 0.20 0.20 0.39 0.32 0.15 0.27 0.23 0.16 0.31 0.26 0.34 0.38 0.42 0.51 0.50 0.69 1.08 1.90 2.06 2.07 2.41 2.64 2.81 2.41 1.99 2.27 2.19 1.82 1.80
1.44 1.14 0.86 0.76 0.35 0.23 0.23 0.58 1.20 1.12 1.15 0.65 0.22 0.08 0.11 0.11 0.10 0.25 0.38 0.25 0.36 0.49 0.30 0.36 0.58 0.54 0.58 0.58 0.38 0.40 0.52 0.59 0.94 1.35 1.70 1.85 1.56 1.82 1.91 1.80 1.79 1.96 1.93 1.72
1.52 1.92 1.12 0.63 0.28 0.34 0.35 0.58 0.88 0.74 0.35 0.42 0.17 0.22 0.18 0.20 0.19 0.18 0.34 0.46 0.72 0.98 0.55 0.51 0.80 0.98 0.99 0.70 0.62 0.39 0.49 0.33 0.26 0.34 0.63 1.04 1.34 1.71 1.71 1.58 1.52 1.47 1.41 1.55
0.62 1.13 0.58 0.28 0.08 0.16 0.33 0.45 0.33 0.47 0.21 0.35 0.35 0.30 0.37 0.38 0.39 0.27 0.36 0.69 0.95 1.05 0.91 0.79 0.84 1.13 1.00 0.74 0.71 0.67 0.52 0.48 0.20 0.12 0.19 0.23 0.32 0.44 0.65 0.78 0.82 0.97 1.23 1.18
0.17 0.58 0.30 0.16 0.13 0.07 0.07 0.13 0.26 0.53 0.41 0.28 0.25 0.24 0.60 0.64 0.59 0.58 0.65 0.87 0.98 0.91 1.10 0.94 0.85 0.78 0.62 0.54 0.43 0.43 0.32 0.13 0.09 0.09 0.11 0.04 0.07 0.10 0.14 0.17 0.18 0.23 0.40 0.55
0.01 0.16 0.28 0.23 0.25 0.10 0.04 0.14 0.15 0.23 0.22 0.22 0.08 0.14 0.38 0.49 0.43 0.47 0.54 0.68 0.76 0.85 0.82 0.69 0.56 0.34 0.17 0.11 0.02 0.02 0.02 0.04 0.06 0.05 0.03 0.02 0.04 0.06 0.07 0.07 0.05 0.05 0.07 0.08
0.00 0.04 0.10 0.13 0.03 0.01 0.02 0.01 0.04 0.23 0.09 0.13 0.07 0.07 0.05 0.11 0.14 0.20 0.26 0.29 0.30 0.39 0.36 0.28 0.14 0.04 0.01 0.00 0.00 0.00 0.05 0.07 0.03 0.02 0.02 0.02 0.03 0.04 0.05 0.05 0.07 0.07 0.07 0.05
0.00 0.05 0.12 0.18 0.16 0.06 0.06 0.02 0.10 0.21 0.39 0.25 0.12 0.04 0.01 0.01 0.02 0.06 0.06 0.05 0.03 0.01 0.01 0.02 0.00 0.00 0.01 0.02 0.07 0.12 0.10 0.03 0.04 0.04 0.03 0.03 0.04 0.05 0.06 0.06 0.06 0.06 0.06 0.06
0.01 0.03 0.03 0.06 0.09 0.20 0.18 0.03 0.10 0.42 0.55 0.09 0.04 0.00 0.00 0.01 0.00 0.01 0.01 0.01 0.01 0.00 0.00 0.00 0.01 0.00 0.06 0.15 0.25 0.15 0.12 0.10 0.10 0.09 0.07 0.08 0.07 0.08 0.07 0.07 0.06 0.05 0.05 0.05
0.04 0.05 0.02 0.02 0.06 0.22 0.20 0.08 0.07 0.32 0.17 0.23 0.06 0.00 0.00 0.00 0.00 0.01 0.01 0.00 0.00 0.01 0.00 0.00 0.01 0.01 0.05 0.19 0.18 0.17 0.20 0.19 0.16 0.15 0.12 0.07 0.06 0.08 0.07 0.06 0.07 0.05 0.05 0.04
0.05 0.09 0.06 0.06 0.05 0.10 0.16 0.04 0.06 0.06 0.02 0.02 0.01 0.00 0.01 0.00 0.01 0.06 0.03 0.01 0.01 0.00 0.00 0.00 0.00 0.00 0.02 0.08 0.15 0.15 0.19 0.17 0.10 0.10 0.09 0.07 0.05 0.06 0.08 0.09 0.09 0.09 0.09 0.10
0.06 0.08 0.15 0.07 0.04 0.11 0.13 0.04 0.02 0.01 0.00 0.01 0.01 0.01 0.01 0.07 0.18 0.16 0.03 0.01 0.00 0.00 0.00 0.00 0.00 0.00 0.02 0.11 0.19 0.61 0.74 0.37 0.09 0.21 0.16 0.12 0.08 0.09 0.12 0.14 0.16 0.14 0.12 0.15
0.02 0.06 0.19 0.09 0.09 0.24 0.13 0.02 0.00 0.00 0.00 0.00 0.01 0.01 0.04 0.16 0.27 0.07 0.01 0.01 0.00 0.00 0.00 0.00 0.00 0.00 0.02 0.13 0.53 0.65 0.86 0.35 0.16 0.29 0.47 0.52 0.47 0.39 0.39 0.41 0.40 0.32 0.30 0.29
0.01 0.06 0.18 0.16 0.17 0.09 0.01 0.00 0.00 0.00 0.00 0.00 0.03 0.01 0.02 0.07 0.07 0.03 0.01 0.01 0.01 0.01 0.01 0.01 0.00 0.00 0.01 0.08 0.30 0.32 0.47 0.53 0.56 0.85 0.84 0.80 0.66 0.62 0.87 1.01 0.86 0.75 0.73 0.68
0.02 0.03 0.16 0.10 0.09 0.01 0.01 0.00 0.00 0.02 0.01 0.00 0.04 0.03 0.01 0.02 0.03 0.04 0.00 0.01 0.01 0.01 0.00 0.00 0.01 0.02 0.03 0.06 0.22 0.56 0.97 0.79 0.72 0.81 0.97 0.89 0.78 0.64 0.75 0.70 0.76 0.71 0.63 0.68
0.07 0.10 0.15 0.14 0.15 0.00 0.00 0.00 0.00 0.00 0.01 0.00 0.02 0.05 0.01 0.01 0.00 0.03 0.09 0.07 0.04 0.02 0.03 0.04 0.05 0.14 0.19 0.29 0.61 0.84 0.99 0.90 0.89 0.92 0.79 0.66 0.55 0.71 0.67 0.69 0.53 0.61 0.53 0.41
0.02 0.04 0.06 0.07 0.09 0.01 0.00 0.00 0.00 0.00 0.00 0.00 0.00 0.04 0.04 0.00 0.00 0.00 0.02 0.08 0.10 0.14 0.19 0.07 0.22 0.66 0.79 0.59 0.55 0.45 0.50 0.47 0.26 0.37 0.34 0.37 0.26 0.32 0.42 0.27 0.25 0.23 0.19 0.13
0.00 0.00 0.00 0.00 0.00 0.00 0.00 0.00 0.00 0.00 0.00 0.00 0.01 0.01 0.01 0.02 0.05 0.04 0.01 0.01 0.02 0.04 0.07 0.01 0.07 0.12 0.09 0.04 0.01 0.03 0.05 0.05 0.00 0.00 0.00 0.00 0.00 0.00 0.01 0.00 0.00 0.00 0.00 0.00
0.00 0.00 0.00 0.00 0.00 0.00 0.00 0.00 0.00 0.00 0.00 0.00 0.02 0.02 0.00 0.00 0.00 0.00 0.00 0.00 0.00 0.00 0.00 0.00 0.00 0.00 0.00 0.00 0.00 0.00 0.00 0.00 0.00 0.00 0.00 0.00 0.00 0.00 0.00 0.00 0.00 0.00 0.00 0.01
0.01 0.00 0.00 0.00 0.00 0.00 0.00 0.00 0.00 0.00 0.00 0.00 0.00 0.00 0.00 0.00 0.00 0.00 0.00 0.00 0.00 0.01 0.04 0.07 0.09 0.09 0.05 0.01 0.01 0.01 0.01 0.02 0.03 0.02 0.02 0.01 0.01 0.01 0.01 0.01 0.02 0.01 0.01 0.03
0.00 0.00 0.00 0.00 0.00 0.00 0.00 0.00 0.00 0.00 0.00 0.00 0.00 0.00 0.00 0.00 0.00 0.00 0.00 0.00 0.00 0.00 0.00 0.01 0.06 0.12 0.19 0.19 0.17 0.12 0.08 0.07 0.05 0.05 0.03 0.04 0.02 0.02 0.03 0.04 0.04 0.07 0.05 0.06

GFSCGP_prec_precacc_153.txt.gz
Total_Precipitation_Accumulation
3.48 2.40 0.97 0.73 0.74 0.48 0.49 0.32 0.60 0.54 0.54 0.62 0.93 0.67 0.24 0.16 0.20 0.18 0.07 0.05 0.21 0.49 1.00 1.21 0.85 0.73 0.83 0.72 0.74 0.52 0.42 0.36 0.40 0.58 0.55 0.74 0.91 1.22 1.39 1.14 0.98 0.97 0.90 0.81
2.58 1.32 0.41 0.67 0.91 0.45 0.33 0.23 0.63 0.83 0.70 0.70 0.63 0.86 0.43 0.17 0.16 0.15 0.17 0.13 0.21 0.45 0.88 1.26 1.66 0.85 0.79 1.39 1.59 1.18 0.84 0.79 0.55 0.66 0.65 0.57 0.83 1.05 1.27 1.46 1.27 1.34 1.30 1.13
1.48 0.70 0.48 0.71 1.29 0.45 0.16 0.09 0.39 1.22 0.92 0.60 0.49 0.58 0.69 0.27 0.15 0.12 0.18 0.22 0.35 0.55 0.58 1.01 1.79 1.34 1.19 1.62 1.68 1.43 1.33 1.16 1.25 1.15 1.45 1.28 1.32 1.26 1.60 1.82 1.62 1.55 1.48 1.43
1.72 0.60 0.43 0.62 1.23 0.48 0.25 0.09 0.39 0.79 0.59 0.50 0.32 0.45 0.41 0.31 0.21 0.15 0.25 0.28 0.31 0.42 0.37 0.57 0.90 1.25 1.40 0.91 0.84 1.33 2.38 2.65 1.70 1.71 2.50 2.94 2.86 2.76 2.54 2.86 2.50 1.92 1.69 1.69
1.64 0.87 0.63 0.72 0.80 0.46 0.43 0.11 0.32 0.37 0.27 0.31 0.22 0.53 0.21 0.23 0.22 0.28 0.28 0.17 0.16 0.17 0.33 0.34 0.53 0.73 0.60 0.49 0.54 0.72 1.26 2.07 2.13 2.05 2.51 2.92 2.59 2.11 1.95 2.06 2.69 2.69 2.44 2.02
0.90 0.88 0.85 0.75 0.50 0.22 0.17 0.13 0.45 0.39 0.48 0.52 0.21 0.27 0.19 0.20 0.20 0.39 0.32 0.15 0.27 0.23 0.16 0.31 0.26 0.34 0.38 0.42 0.51 0.50 0.69 1.08 1.90 2.06 2.07 2.41 2.64 2.81 2.41 1.99 2.27 2.19 1.82 1.80
1.47 1.19 0.89 0.76 0.35 0.23 0.23 0.60 1.25 1.17 1.19 0.66 0.22 0.08 0.11 0.11 0.10 0.25 0.38 0.25 0.36 0.49 0.30 0.36 0.58 0.54 0.58 0.58 0.38 0.40 0.52 0.59 0.94 1.35 1.70 1.85 1.56 1.82 1.91 1.80 1.79 1.96 1.93 1.72
1.55 1.94 1.13 0.63 0.28 0.34 0.35 0.61 0.92 0.80 0.37 0.42 0.17 0.22 0.18 0.20 0.19 0.18 0.34 0.46 0.72 0.98 0.55 0.51 0.80 0.98 0.99 0.70 0.62 0.39 0.49 0.33 0.26 0.34 0.63 1.04 1.34 1.71 1.71 1.58 1.52 1.47 1.41 1.55
0.63 1.14 0.58 0.28 0.08 0.16 0.33 0.45 0.34 0.48 0.22 0.35 0.35 0.30 0.37 0.38 0.39 0.27 0.36 0.69 0.95 1.05 0.91 0.79 0.84 1.13 1.00 0.74 0.71 0.67 0.52 0.48 0.20 0.12 0.19 0.23 0.32 0.44 0.65 0.78 0.82 0.97 1.23 1.18
0.17 0.58 0.30 0.16 0.13 0.07 0.07 0.13 0.27 0.54 0.42 0.28 0.25 0.24 0.60 0.64 0.59 0.58 0.65 0.87 0.98 0.91 1.10 0.94 0.85 0.78 0.62 0.54 0.43 0.43 0.32 0.13 0.09 0.09 0.11 0.04 0.07 0.10 0.14 0.17 0.18 0.23 0.40 0.55
0.01 0.16 0.28 0.23 0.25 0.10 0.04 0.14 0.15 0.23 0.22 0.22 0.08 0.14 0.38 0.49 0.43 0.47 0.54 0.68 0.76 0.85 0.82 0.69 0.56 0.34 0.17 0.11 0.02 0.02 0.02 0.04 0.06 0.05 0.03 0.02 0.04 0.06 0.07 0.07 0.05 0.05 0.07 0.08
0.00 0.05 0.10 0.14 0.03 0.01 0.02 0.01 0.04 0.23 0.09 0.13 0.07 0.07 0.05 0.11 0.14 0.20 0.26 0.29 0.30 0.39 0.36 0.28 0.14 0.04 0.01 0.00 0.00 0.00 0.05 0.07 0.03 0.02 0.02 0.02 0.03 0.04 0.05 0.05 0.07 0.07 0.07 0.05
0.00 0.05 0.12 0.19 0.16 0.06 0.06 0.02 0.10 0.21 0.39 0.25 0.12 0.04 0.01 0.01 0.02 0.06 0.06 0.05 0.03 0.01 0.01 0.02 0.00 0.00 0.01 0.02 0.07 0.12 0.10 0.03 0.04 0.04 0.03 0.03 0.04 0.05 0.06 0.06 0.06 0.06 0.06 0.06
0.01 0.03 0.03 0.08 0.10 0.20 0.18 0.03 0.10 0.42 0.55 0.09 0.04 0.00 0.00 0.01 0.00 0.01 0.01 0.01 0.01 0.00 0.00 0.00 0.01 0.00 0.06 0.15 0.25 0.15 0.12 0.10 0.10 0.09 0.07 0.08 0.07 0.08 0.07 0.07 0.06 0.05 0.05 0.05
0.04 0.05 0.02 0.02 0.06 0.22 0.20 0.08 0.07 0.32 0.17 0.23 0.06 0.00 0.00 0.00 0.00 0.01 0.01 0.00 0.00 0.01 0.00 0.00 0.01 0.01 0.05 0.19 0.18 0.17 0.20 0.19 0.16 0.15 0.12 0.07 0.06 0.08 0.07 0.06 0.07 0.05 0.05 0.04
0.05 0.09 0.06 0.06 0.05 0.10 0.16 0.04 0.06 0.06 0.02 0.02 0.01 0.00 0.01 0.00 0.01 0.06 0.03 0.01 0.01 0.00 0.00 0.00 0.00 0.00 0.02 0.08 0.15 0.15 0.19 0.17 0.10 0.10 0.09 0.07 0.05 0.06 0.08 0.09 0.09 0.09 0.09 0.10
0.06 0.08 0.15 0.07 0.04 0.11 0.13 0.04 0.02 0.01 0.00 0.01 0.01 0.01 0.01 0.07 0.18 0.16 0.03 0.01 0.00 0.00 0.00 0.00 0.00 0.00 0.02 0.11 0.19 0.61 0.74 0.37 0.09 0.21 0.16 0.12 0.08 0.09 0.12 0.14 0.16 0.14 0.12 0.15
0.02 0.06 0.19 0.09 0.09 0.24 0.13 0.02 0.00 0.00 0.00 0.00 0.01 0.01 0.04 0.16 0.27 0.07 0.01 0.01 0.00 0.00 0.00 0.00 0.00 0.00 0.02 0.13 0.53 0.65 0.86 0.35 0.16 0.29 0.47 0.52 0.47 0.39 0.39 0.41 0.40 0.32 0.30 0.29
0.01 0.06 0.18 0.16 0.17 0.09 0.01 0.00 0.00 0.00 0.00 0.00 0.03 0.01 0.02 0.07 0.07 0.03 0.01 0.01 0.01 0.01 0.01 0.01 0.00 0.00 0.01 0.08 0.30 0.32 0.47 0.53 0.56 0.85 0.84 0.80 0.66 0.62 0.87 1.01 0.86 0.75 0.73 0.68
0.02 0.03 0.16 0.10 0.09 0.01 0.01 0.00 0.00 0.02 0.01 0.00 0.04 0.03 0.01 0.02 0.03 0.04 0.00 0.01 0.01 0.01 0.00 0.00 0.01 0.02 0.03 0.06 0.22 0.56 0.97 0.79 0.72 0.81 0.97 0.89 0.78 0.64 0.75 0.70 0.76 0.71 0.63 0.68
0.07 0.10 0.15 0.14 0.15 0.00 0.00 0.00 0.00 0.00 0.01 0.00 0.02 0.05 0.01 0.01 0.00 0.03 0.09 0.07 0.04 0.02 0.03 0.04 0.05 0.14 0.19 0.29 0.61 0.84 0.99 0.90 0.89 0.92 0.79 0.66 0.55 0.71 0.67 0.69 0.53 0.61 0.53 0.41
0.02 0.04 0.06 0.07 0.09 0.01 0.00 0.00 0.00 0.00 0.00 0.00 0.00 0.04 0.04 0.00 0.00 0.00 0.02 0.08 0.10 0.14 0.19 0.07 0.22 0.66 0.79 0.59 0.55 0.45 0.50 0.47 0.26 0.37 0.34 0.37 0.26 0.32 0.42 0.27 0.25 0.23 0.19 0.13
0.00 0.00 0.00 0.00 0.00 0.00 0.00 0.00 0.00 0.00 0.00 0.00 0.01 0.01 0.01 0.02 0.05 0.04 0.01 0.01 0.02 0.04 0.07 0.01 0.07 0.12 0.09 0.04 0.01 0.03 0.05 0.05 0.00 0.00 0.00 0.00 0.00 0.00 0.01 0.00 0.00 0.00 0.00 0.00
0.00 0.00 0.00 0.00 0.00 0.00 0.00 0.00 0.00 0.00 0.00 0.00 0.02 0.02 0.00 0.00 0.00 0.00 0.00 0.00 0.00 0.00 0.00 0.00 0.00 0.00 0.00 0.00 0.00 0.00 0.00 0.00 0.00 0.00 0.00 0.00 0.00 0.00 0.00 0.00 0.00 0.00 0.00 0.01
0.01 0.00 0.00 0.00 0.00 0.00 0.00 0.00 0.00 0.00 0.00 0.00 0.00 0.00 0.00 0.00 0.00 0.00 0.00 0.00 0.00 0.01 0.04 0.07 0.09 0.09 0.05 0.01 0.01 0.01 0.01 0.02 0.03 0.02 0.02 0.01 0.01 0.01 0.01 0.01 0.02 0.01 0.01 0.03
0.00 0.00 0.00 0.00 0.00 0.00 0.00 0.00 0.00 0.00 0.00 0.00 0.00 0.00 0.00 0.00 0.00 0.00 0.00 0.00 0.00 0.00 0.00 0.01 0.06 0.12 0.19 0.19 0.17 0.12 0.08 0.07 0.05 0.05 0.03 0.04 0.02 0.02 0.03 0.04 0.04 0.07 0.05 0.06

GFSCGP_prec_precacc_156.txt.gz
Total_Precipitation_Accumulation
3.52 2.43 0.97 0.73 0.74 0.48 0.50 0.38 0.63 0.56 0.55 0.62 0.93 0.67 0.24 0.16 0.20 0.18 0.07 0.05 0.21 0.49 1.00 1.21 0.85 0.73 0.83 0.72 0.74 0.52 0.42 0.36 0.40 0.58 0.55 0.74 0.91 1.22 1.39 1.14 0.98 0.97 0.90 0.81
2.62 1.34 0.41 0.67 0.92 0.48 0.41 0.34 0.73 0.86 0.71 0.71 0.63 0.86 0.43 0.17 0.16 0.15 0.17 0.13 0.21 0.45 0.88 1.26 1.66 0.85 0.79 1.39 1.59 1.18 0.84 0.79 0.55 0.66 0.65 0.57 0.83 1.05 1.27 1.46 1.27 1.34 1.30 1.13
1.52 0.72 0.54 0.75 1.34 0.55 0.28 0.15 0.44 1.26 0.94 0.62 0.49 0.58 0.70 0.27 0.15 0.12 0.18 0.22 0.35 0.55 0.58 1.01 1.79 1.34 1.19 1.62 1.68 1.43 1.33 1.16 1.25 1.15 1.45 1.28 1.32 1.26 1.60 1.82 1.62 1.55 1.48 1.43
1.83 0.63 0.46 0.68 1.30 0.61 0.34 0.10 0.42 0.81 0.59 0.50 0.32 0.46 0.43 0.31 0.21 0.15 0.25 0.28 0.31 0.42 0.37 0.57 0.90 1.25 1.40 0.91 0.84 1.33 2.38 2.65 1.70 1.71 2.50 2.94 2.86 2.76 2.54 2.86 2.50 1.92 1.69 1.69
1.67 0.88 0.64 0.74 0.82 0.54 0.46 0.12 0.36 0.38 0.27 0.31 0.22 0.53 0.22 0.23 0.22 0.28 0.28 0.17 0.16 0.17 0.33 0.34 0.53 0.73 0.60 0.49 0.54 0.72 1.26 2.07 2.13 2.05 2.51 2.92 2.59 2.11 1.95 2.06 2.69 2.69 2.44 2.02
0.92 0.90 0.86 0.76 0.50 0.23 0.17 0.13 0.51 0.40 0.50 0.55 0.21 0.28 0.20 0.20 0.20 0.39 0.32 0.15 0.27 0.23 0.16 0.31 0.26 0.34 0.38 0.42 0.51 0.50 0.69 1.08 1.90 2.06 2.07 2.41 2.64 2.81 2.41 1.99 2.27 2.19 1.82 1.80
1.49 1.22 0.89 0.77 0.35 0.23 0.23 0.61 1.35 1.25 1.26 0.70 0.22 0.08 0.12 0.11 0.10 0.25 0.38 0.25 0.36 0.49 0.30 0.36 0.58 0.54 0.58 0.58 0.38 0.40 0.52 0.59 0.94 1.35 1.70 1.85 1.56 1.82 1.91 1.80 1.79 1.96 1.93 1.72
1.57 1.97 1.14 0.63 0.28 0.34 0.35 0.63 0.95 0.83 0.44 0.45 0.18 0.22 0.18 0.20 0.19 0.18 0.34 0.46 0.72 0.98 0.55 0.51 0.80 0.98 0.99 0.70 0.62 0.39 0.49 0.33 0.26 0.34 0.63 1.04 1.34 1.71 1.71 1.58 1.52 1.47 1.41 1.55
0.66 1.16 0.58 0.28 0.08 0.16 0.33 0.47 0.35 0.50 0.26 0.38 0.36 0.30 0.37 0.38 0.39 0.27 0.36 0.69 0.95 1.05 0.91 0.79 0.84 1.13 1.00 0.74 0.71 0.67 0.52 0.48 0.20 0.12 0.19 0.23 0.32 0.44 0.65 0.78 0.82 0.97 1.23 1.18
0.17 0.59 0.30 0.16 0.13 0.07 0.07 0.13 0.27 0.55 0.48 0.33 0.26 0.24 0.60 0.64 0.59 0.58 0.65 0.87 0.98 0.91 1.10 0.94 0.85 0.78 0.62 0.54 0.43 0.43 0.32 0.13 0.09 0.09 0.11 0.04 0.07 0.10 0.14 0.17 0.18 0.23 0.40 0.55
0.01 0.17 0.29 0.23 0.26 0.10 0.04 0.14 0.16 0.24 0.23 0.25 0.09 0.14 0.38 0.49 0.43 0.47 0.54 0.68 0.76 0.85 0.82 0.69 0.56 0.34 0.17 0.11 0.02 0.02 0.02 0.04 0.06 0.05 0.03 0.02 0.04 0.06 0.07 0.07 0.05 0.05 0.07 0.08
0.00 0.05 0.11 0.14 0.03 0.01 0.02 0.01 0.04 0.24 0.11 0.16 0.07 0.07 0.05 0.11 0.14 0.20 0.26 0.29 0.30 0.39 0.36 0.28 0.14 0.04 0.01 0.00 0.00 0.00 0.05 0.07 0.03 0.02 0.02 0.02 0.03 0.04 0.05 0.05 0.07 0.07 0.07 0.05
0.00 0.05 0.13 0.19 0.16 0.06 0.06 0.02 0.10 0.21 0.40 0.25 0.12 0.04 0.01 0.01 0.02 0.06 0.06 0.05 0.03 0.01 0.01 0.02 0.00 0.00 0.01 0.02 0.07 0.12 0.10 0.03 0.04 0.04 0.03 0.03 0.04 0.05 0.06 0.06 0.06 0.06 0.06 0.06
0.01 0.03 0.04 0.10 0.10 0.20 0.18 0.03 0.10 0.42 0.56 0.09 0.04 0.00 0.00 0.01 0.00 0.01 0.01 0.01 0.01 0.00 0.00 0.00 0.01 0.00 0.06 0.15 0.25 0.15 0.12 0.10 0.10 0.09 0.07 0.08 0.07 0.08 0.07 0.07 0.06 0.05 0.05 0.05
0.04 0.05 0.02 0.02 0.06 0.22 0.20 0.08 0.07 0.32 0.17 0.23 0.06 0.00 0.00 0.00 0.00 0.01 0.01 0.00 0.00 0.01 0.00 0.00 0.01 0.01 0.05 0.19 0.18 0.17 0.20 0.19 0.16 0.15 0.12 0.07 0.06 0.08 0.07 0.06 0.07 0.05 0.05 0.04
0.05 0.09 0.06 0.06 0.05 0.10 0.16 0.04 0.06 0.06 0.02 0.02 0.01 0.00 0.01 0.00 0.01 0.06 0.03 0.01 0.01 0.00 0.00 0.00 0.00 0.00 0.02 0.08 0.15 0.15 0.19 0.17 0.10 0.10 0.09 0.07 0.05 0.06 0.08 0.09 0.09 0.09 0.09 0.10
0.06 0.08 0.15 0.07 0.04 0.11 0.13 0.04 0.02 0.01 0.00 0.01 0.01 0.01 0.01 0.07 0.18 0.16 0.03 0.01 0.00 0.00 0.00 0.00 0.00 0.00 0.02 0.11 0.19 0.61 0.74 0.37 0.09 0.21 0.16 0.12 0.08 0.09 0.12 0.14 0.16 0.14 0.12 0.15
0.02 0.06 0.19 0.09 0.09 0.24 0.13 0.02 0.00 0.00 0.00 0.00 0.01 0.01 0.04 0.16 0.27 0.07 0.01 0.01 0.00 0.00 0.00 0.00 0.00 0.00 0.02 0.13 0.53 0.65 0.86 0.35 0.16 0.29 0.47 0.52 0.47 0.39 0.39 0.41 0.40 0.32 0.30 0.29
0.01 0.06 0.18 0.16 0.17 0.09 0.01 0.00 0.00 0.00 0.00 0.00 0.03 0.01 0.02 0.07 0.07 0.03 0.01 0.01 0.01 0.01 0.01 0.01 0.00 0.00 0.01 0.08 0.30 0.32 0.47 0.53 0.56 0.85 0.84 0.80 0.66 0.62 0.87 1.01 0.86 0.75 0.73 0.68
0.02 0.03 0.16 0.10 0.09 0.01 0.01 0.00 0.00 0.02 0.01 0.00 0.04 0.03 0.01 0.02 0.03 0.04 0.00 0.01 0.01 0.01 0.00 0.00 0.01 0.02 0.03 0.06 0.22 0.56 0.97 0.79 0.72 0.81 0.97 0.89 0.78 0.64 0.75 0.70 0.76 0.71 0.63 0.68
0.07 0.10 0.15 0.14 0.15 0.00 0.00 0.00 0.00 0.00 0.01 0.00 0.02 0.05 0.01 0.01 0.00 0.03 0.09 0.07 0.04 0.02 0.03 0.04 0.05 0.14 0.19 0.29 0.61 0.84 0.99 0.90 0.89 0.92 0.79 0.66 0.55 0.71 0.67 0.69 0.53 0.61 0.53 0.41
0.02 0.04 0.06 0.07 0.09 0.01 0.00 0.00 0.00 0.00 0.00 0.00 0.00 0.04 0.04 0.00 0.00 0.00 0.02 0.08 0.10 0.14 0.19 0.07 0.22 0.66 0.79 0.59 0.55 0.45 0.50 0.47 0.26 0.37 0.34 0.37 0.26 0.32 0.42 0.27 0.25 0.23 0.19 0.13
0.00 0.00 0.00 0.00 0.00 0.00 0.00 0.00 0.00 0.00 0.00 0.00 0.01 0.01 0.01 0.02 0.05 0.04 0.01 0.01 0.02 0.04 0.07 0.01 0.07 0.12 0.09 0.04 0.01 0.03 0.05 0.05 0.00 0.00 0.00 0.00 0.00 0.00 0.01 0.00 0.00 0.00 0.00 0.00
0.00 0.00 0.00 0.00 0.00 0.00 0.00 0.00 0.00 0.00 0.00 0.00 0.02 0.02 0.00 0.00 0.00 0.00 0.00 0.00 0.00 0.00 0.00 0.00 0.00 0.00 0.00 0.00 0.00 0.00 0.00 0.00 0.00 0.00 0.00 0.00 0.00 0.00 0.00 0.00 0.00 0.00 0.00 0.01
0.01 0.00 0.00 0.00 0.00 0.00 0.00 0.00 0.00 0.00 0.00 0.00 0.00 0.00 0.00 0.00 0.00 0.00 0.00 0.00 0.00 0.01 0.04 0.07 0.09 0.09 0.05 0.01 0.01 0.01 0.01 0.02 0.03 0.02 0.02 0.01 0.01 0.01 0.01 0.01 0.02 0.01 0.01 0.03
0.00 0.00 0.00 0.00 0.00 0.00 0.00 0.00 0.00 0.00 0.00 0.00 0.00 0.00 0.00 0.00 0.00 0.00 0.00 0.00 0.00 0.00 0.00 0.01 0.06 0.12 0.19 0.19 0.17 0.12 0.08 0.07 0.05 0.05 0.03 0.04 0.02 0.02 0.03 0.04 0.04 0.07 0.05 0.06

GFSCGP_prec_precacc_159.txt.gz
Total_Precipitation_Accumulation
3.54 2.46 0.99 0.73 0.74 0.48 0.50 0.38 0.63 0.56 0.55 0.63 0.94 0.67 0.24 0.16 0.20 0.18 0.07 0.05 0.21 0.49 1.00 1.21 0.85 0.73 0.83 0.72 0.74 0.52 0.42 0.36 0.40 0.58 0.55 0.74 0.91 1.22 1.39 1.14 0.98 0.97 0.90 0.81
2.63 1.34 0.41 0.67 0.92 0.49 0.41 0.34 0.73 0.86 0.71 0.73 0.64 0.86 0.43 0.18 0.16 0.15 0.17 0.13 0.21 0.45 0.88 1.26 1.66 0.86 0.79 1.39 1.59 1.18 0.84 0.79 0.55 0.66 0.65 0.57 0.83 1.05 1.27 1.46 1.27 1.34 1.30 1.13
1.54 0.74 0.58 0.80 1.38 0.58 0.29 0.16 0.44 1.26 0.95 0.65 0.51 0.59 0.70 0.27 0.15 0.14 0.18 0.22 0.35 0.55 0.58 1.01 1.80 1.34 1.19 1.62 1.68 1.43 1.33 1.16 1.25 1.15 1.45 1.28 1.32 1.26 1.60 1.82 1.62 1.55 1.48 1.43
1.88 0.66 0.53 0.78 1.41 0.69 0.42 0.12 0.45 0.85 0.65 0.58 0.35 0.48 0.44 0.32 0.22 0.16 0.25 0.28 0.31 0.42 0.37 0.57 0.90 1.25 1.40 0.91 0.84 1.33 2.38 2.65 1.70 1.71 2.50 2.94 2.86 2.76 2.54 2.86 2.50 1.92 1.69 1.69
1.69 0.91 0.70 0.81 0.88 0.63 0.53 0.20 0.52 0.52 0.29 0.37 0.27 0.54 0.22 0.27 0.24 0.28 0.28 0.17 0.16 0.17 0.33 0.34 0.53 0.73 0.60 0.49 0.54 0.72 1.26 2.07 2.13 2.05 2.51 2.92 2.59 2.11 1.95 2.06 2.69 2.69 2.44 2.02
0.92 0.92 0.89 0.77 0.51 0.25 0.20 0.15 0.53 0.48 0.51 0.60 0.22 0.28 0.21 0.22 0.20 0.40 0.32 0.15 0.27 0.23 0.16 0.31 0.26 0.34 0.38 0.42 0.51 0.50 0.69 1.08 1.90 2.06 2.07 2.41 2.64 2.81 2.41 1.99 2.27 2.19 1.82 1.80
1.49 1.23 0.90 0.77 0.36 0.24 0.26 0.62 1.51 1.49 1.30 0.71 0.22 0.09 0.12 0.11 0.10 0.25 0.38 0.25 0.36 0.49 0.30 0.36 0.58 0.54 0.58 0.58 0.38 0.40 0.52 0.59 0.94 1.35 1.70 1.85 1.56 1.82 1.91 1.80 1.79 1.96 1.93 1.72
1.60 2.00 1.15 0.63 0.28 0.34 0.35 0.63 1.02 0.96 0.44 0.45 0.19 0.24 0.19 0.21 0.19 0.18 0.34 0.46 0.72 0.98 0.55 0.51 0.80 0.98 0.99 0.70 0.62 0.39 0.49 0.33 0.26 0.34 0.63 1.04 1.34 1.71 1.71 1.58 1.52 1.47 1.41 1.55
0.68 1.17 0.58 0.28 0.08 0.16 0.33 0.47 0.36 0.51 0.27 0.41 0.37 0.30 0.38 0.41 0.39 0.27 0.36 0.69 0.95 1.05 0.91 0.79 0.84 1.13 1.00 0.74 0.71 0.67 0.52 0.48 0.20 0.12 0.19 0.23 0.32 0.44 0.65 0.78 0.82 0.97 1.23 1.18
0.17 0.59 0.30 0.16 0.13 0.07 0.07 0.14 0.29 0.57 0.62 0.38 0.28 0.24 0.60 0.66 0.59 0.58 0.65 0.87 0.98 0.91 1.10 0.94 0.85 0.78 0.62 0.54 0.43 0.43 0.32 0.13 0.09 0.09 0.11 0.04 0.07 0.10 0.14 0.17 0.18 0.23 0.40 0.55
0.01 0.18 0.30 0.23 0.26 0.10 0.04 0.14 0.17 0.28 0.35 0.41 0.11 0.15 0.38 0.49 0.44 0.47 0.54 0.68 0.76 0.85 0.82 0.69 0.56 0.34 0.17 0.11 0.02 0.02 0.02 0.04 0.06 0.05 0.03 0.02 0.04 0.06 0.07 0.07 0.05 0.05 0.07 0.08
0.00 0.05 0.11 0.14 0.03 0.01 0.02 0.01 0.04 0.27 0.14 0.25 0.11 0.07 0.05 0.11 0.14 0.20 0.26 0.29 0.30 0.39 0.36 0.28 0.14 0.04 0.01 0.00 0.00 0.00 0.05 0.07 0.03 0.02 0.02 0.02 0.03 0.04 0.05 0.05 0.07 0.07 0.07 0.05
0.00 0.05 0.14 0.19 0.16 0.06 0.06 0.02 0.10 0.21 0.43 0.29 0.16 0.04 0.01 0.01 0.02 0.06 0.06 0.05 0.03 0.01 0.01 0.02 0.00 0.00 0.01 0.02 0.07 0.12 0.10 0.03 0.04 0.04 0.03 0.03 0.04 0.05 0.06 0.06 0.06 0.06 0.06 0.06
0.01 0.03 0.04 0.11 0.10 0.20 0.18 0.03 0.10 0.42 0.58 0.11 0.06 0.00 0.00 0.01 0.00 0.01 0.01 0.01 0.01 0.00 0.00 0.00 0.01 0.00 0.06 0.15 0.25 0.15 0.12 0.10 0.10 0.09 0.07 0.08 0.07 0.08 0.07 0.07 0.06 0.05 0.05 0.05
0.04 0.05 0.02 0.02 0.06 0.22 0.20 0.08 0.07 0.32 0.17 0.24 0.06 0.00 0.00 0.00 0.00 0.01 0.01 0.00 0.00 0.01 0.00 0.00 0.01 0.01 0.05 0.19 0.18 0.17 0.20 0.19 0.16 0.15 0.12 0.07 0.06 0.08 0.07 0.06 0.07 0.05 0.05 0.04
0.05 0.09 0.06 0.06 0.05 0.10 0.16 0.04 0.06 0.06 0.02 0.02 0.01 0.00 0.01 0.00 0.01 0.06 0.03 0.01 0.01 0.00 0.00 0.00 0.00 0.00 0.02 0.08 0.15 0.15 0.19 0.17 0.10 0.10 0.09 0.07 0.05 0.06 0.08 0.09 0.09 0.09 0.09 0.10
0.06 0.08 0.15 0.07 0.04 0.11 0.13 0.04 0.02 0.01 0.00 0.01 0.01 0.01 0.01 0.07 0.18 0.16 0.03 0.01 0.00 0.00 0.00 0.00 0.00 0.00 0.02 0.11 0.19 0.61 0.74 0.37 0.09 0.21 0.16 0.12 0.08 0.09 0.12 0.14 0.16 0.14 0.12 0.15
0.02 0.06 0.19 0.09 0.09 0.24 0.13 0.02 0.00 0.00 0.00 0.00 0.01 0.01 0.04 0.16 0.27 0.07 0.01 0.01 0.00 0.00 0.00 0.00 0.00 0.00 0.02 0.13 0.53 0.65 0.86 0.35 0.16 0.29 0.47 0.52 0.47 0.39 0.39 0.41 0.40 0.32 0.30 0.29
0.01 0.06 0.18 0.16 0.17 0.09 0.01 0.00 0.00 0.00 0.00 0.00 0.03 0.01 0.02 0.07 0.07 0.03 0.01 0.01 0.01 0.01 0.01 0.01 0.00 0.00 0.01 0.08 0.30 0.32 0.47 0.53 0.56 0.85 0.84 0.80 0.66 0.62 0.87 1.01 0.86 0.75 0.73 0.68
0.02 0.03 0.16 0.10 0.09 0.01 0.01 0.00 0.00 0.02 0.01 0.00 0.04 0.03 0.01 0.02 0.03 0.04 0.00 0.01 0.01 0.01 0.00 0.00 0.01 0.02 0.03 0.06 0.22 0.56 0.97 0.79 0.72 0.81 0.97 0.89 0.78 0.64 0.75 0.70 0.76 0.71 0.63 0.68
0.07 0.10 0.15 0.14 0.15 0.00 0.00 0.00 0.00 0.00 0.01 0.00 0.02 0.05 0.01 0.01 0.00 0.03 0.09 0.07 0.04 0.02 0.03 0.04 0.05 0.14 0.19 0.29 0.61 0.84 0.99 0.90 0.89 0.92 0.79 0.66 0.55 0.71 0.67 0.69 0.53 0.61 0.53 0.41
0.02 0.04 0.06 0.07 0.09 0.01 0.00 0.00 0.00 0.00 0.00 0.00 0.00 0.04 0.04 0.00 0.00 0.00 0.02 0.08 0.10 0.14 0.19 0.07 0.22 0.66 0.79 0.59 0.55 0.45 0.50 0.47 0.26 0.37 0.34 0.37 0.26 0.32 0.42 0.27 0.25 0.23 0.19 0.13
0.00 0.00 0.00 0.00 0.00 0.00 0.00 0.00 0.00 0.00 0.00 0.00 0.01 0.01 0.01 0.02 0.05 0.04 0.01 0.01 0.02 0.04 0.07 0.01 0.07 0.12 0.09 0.04 0.01 0.03 0.05 0.05 0.00 0.00 0.00 0.00 0.00 0.00 0.01 0.00 0.00 0.00 0.00 0.00
0.00 0.00 0.00 0.00 0.00 0.00 0.00 0.00 0.00 0.00 0.00 0.00 0.02 0.02 0.00 0.00 0.00 0.00 0.00 0.00 0.00 0.00 0.00 0.00 0.00 0.00 0.00 0.00 0.00 0.00 0.00 0.00 0.00 0.00 0.00 0.00 0.00 0.00 0.00 0.00 0.00 0.00 0.00 0.01
0.01 0.00 0.00 0.00 0.00 0.00 0.00 0.00 0.00 0.00 0.00 0.00 0.00 0.00 0.00 0.00 0.00 0.00 0.00 0.00 0.00 0.01 0.04 0.07 0.09 0.09 0.05 0.01 0.01 0.01 0.01 0.02 0.03 0.02 0.02 0.01 0.01 0.01 0.01 0.01 0.02 0.01 0.01 0.03
0.00 0.00 0.00 0.00 0.00 0.00 0.00 0.00 0.00 0.00 0.00 0.00 0.00 0.00 0.00 0.00 0.00 0.00 0.00 0.00 0.00 0.00 0.00 0.01 0.06 0.12 0.19 0.19 0.17 0.12 0.08 0.07 0.05 0.05 0.03 0.04 0.02 0.02 0.03 0.04 0.04 0.07 0.05 0.06

GFSCGP_prec_precacc_165.txt.gz
Total_Precipitation_Accumulation
3.54 2.47 1.00 0.73 0.74 0.49 0.55 0.43 0.65 0.56 0.55 0.64 0.95 0.67 0.24 0.16 0.20 0.18 0.07 0.06 0.23 0.51 1.01 1.23 0.85 0.73 0.85 0.75 0.75 0.52 0.42 0.36 0.40 0.58 0.55 0.74 0.91 1.22 1.39 1.14 0.98 0.97 0.90 0.81
2.64 1.35 0.41 0.67 0.92 0.49 0.43 0.37 0.74 0.86 0.71 0.73 0.64 0.86 0.43 0.18 0.16 0.15 0.17 0.13 0.22 0.47 0.89 1.26 1.66 0.86 0.81 1.41 1.62 1.18 0.84 0.79 0.55 0.66 0.65 0.57 0.83 1.05 1.27 1.46 1.27 1.34 1.30 1.13
1.55 0.74 0.58 0.81 1.40 0.67 0.35 0.17 0.44 1.26 0.95 0.65 0.51 0.59 0.70 0.27 0.15 0.14 0.18 0.23 0.35 0.56 0.59 1.02 1.80 1.35 1.20 1.64 1.72 1.44 1.33 1.16 1.25 1.15 1.45 1.28 1.32 1.26 1.60 1.82 1.62 1.55 1.48 1.43
1.89 0.66 0.56 0.88 1.57 0.86 0.62 0.15 0.48 0.87 0.76 0.62 0.36 0.50 0.44 0.32 0.22 0.16 0.25 0.28 0.31 0.43 0.38 0.58 0.91 1.26 1.41 0.94 0.87 1.34 2.38 2.65 1.70 1.71 2.50 2.94 2.86 2.76 2.54 2.86 2.50 1.92 1.69 1.69
1.69 0.91 0.76 0.94 0.95 0.74 0.66 0.33 0.80 0.93 0.62 0.57 0.36 0.62 0.23 0.27 0.24 0.29 0.28 0.17 0.16 0.17 0.33 0.34 0.54 0.76 0.62 0.53 0.56 0.72 1.26 2.07 2.13 2.05 2.51 2.92 2.59 2.11 1.95 2.06 2.69 2.69 2.44 2.02
0.92 0.93 0.93 0.78 0.52 0.27 0.24 0.29 0.76 1.23 0.97 0.98 0.31 0.33 0.22 0.22 0.20 0.40 0.32 0.15 0.27 0.23 0.16 0.31 0.27 0.36 0.39 0.44 0.52 0.50 0.69 1.08 1.90 2.06 2.07 2.41 2.64 2.81 2.41 1.99 2.27 2.19 1.82 1.80
1.50 1.24 0.90 0.77 0.36 0.24 0.29 0.69 1.57 1.69 1.51 0.77 0.23 0.12 0.14 0.11 0.10 0.26 0.38 0.25 0.36 0.49 0.30 0.36 0.58 0.54 0.58 0.59 0.39 0.40 0.52 0.59 0.94 1.35 1.70 1.85 1.56 1.82 1.91 1.80 1.79 1.96 1.93 1.72
1.60 2.00 1.15 0.63 0.28 0.34 0.35 0.65 1.15 1.20 0.57 0.50 0.20 0.24 0.19 0.21 0.19 0.19 0.35 0.47 0.72 0.98 0.55 0.51 0.80 0.98 1.00 0.71 0.62 0.39 0.49 0.33 0.26 0.34 0.63 1.04 1.34 1.71 1.71 1.58 1.52 1.47 1.41 1.55
0.68 1.17 0.58 0.28 0.08 0.16 0.33 0.48 0.39 0.55 0.29 0.43 0.37 0.31 0.38 0.41 0.39 0.28 0.37 0.71 0.96 1.05 0.91 0.79 0.84 1.13 1.01 0.75 0.71 0.67 0.52 0.48 0.20 0.12 0.19 0.23 0.32 0.44 0.65 0.78 0.82 0.97 1.23 1.18
0.17 0.60 0.30 0.16 0.13 0.07 0.07 0.14 0.30 0.59 0.73 0.49 0.30 0.24 0.61 0.68 0.61 0.59 0.65 0.87 1.00 0.91 1.10 0.94 0.85 0.79 0.63 0.54 0.43 0.43 0.32 0.13 0.09 0.09 0.11 0.04 0.07 0.10 0.14 0.17 0.18 0.23 0.40 0.55
0.01 0.19 0.30 0.23 0.26 0.10 0.04 0.14 0.17 0.30 0.59 0.76 0.23 0.18 0.38 0.51 0.47 0.49 0.54 0.69 0.77 0.86 0.82 0.70 0.56 0.35 0.19 0.11 0.02 0.02 0.02 0.04 0.06 0.05 0.03 0.02 0.04 0.06 0.07 0.07 0.05 0.05 0.07 0.08
0.00 0.05 0.11 0.14 0.03 0.01 0.02 0.01 0.04 0.32 0.31 0.50 0.30 0.14 0.05 0.14 0.18 0.22 0.27 0.29 0.31 0.41 0.38 0.28 0.14 0.04 0.01 0.00 0.00 0.00 0.05 0.07 0.03 0.02 0.02 0.02 0.03 0.04 0.05 0.05 0.07 0.07 0.07 0.05
0.00 0.05 0.15 0.19 0.16 0.06 0.06 0.02 0.10 0.21 0.48 0.35 0.25 0.05 0.01 0.02 0.04 0.08 0.07 0.06 0.04 0.03 0.01 0.02 0.00 0.00 0.01 0.02 0.07 0.12 0.10 0.03 0.04 0.04 0.03 0.03 0.04 0.05 0.06 0.06 0.06 0.06 0.06 0.06
0.01 0.03 0.06 0.12 0.10 0.20 0.18 0.03 0.10 0.42 0.59 0.14 0.07 0.00 0.00 0.01 0.01 0.02 0.03 0.02 0.03 0.02 0.01 0.00 0.01 0.00 0.06 0.15 0.25 0.15 0.12 0.10 0.10 0.09 0.07 0.08 0.07 0.08 0.07 0.07 0.06 0.05 0.05 0.05
0.04 0.05 0.02 0.02 0.06 0.22 0.20 0.08 0.07 0.32 0.17 0.24 0.07 0.00 0.00 0.00 0.00 0.01 0.04 0.02 0.02 0.03 0.00 0.00 0.01 0.01 0.05 0.19 0.18 0.17 0.20 0.19 0.16 0.15 0.12 0.07 0.06 0.08 0.07 0.06 0.07 0.05 0.05 0.04
0.05 0.09 0.06 0.06 0.05 0.10 0.16 0.04 0.06 0.06 0.02 0.02 0.01 0.00 0.01 0.00 0.01 0.06 0.05 0.02 0.03 0.01 0.00 0.00 0.00 0.00 0.02 0.08 0.15 0.15 0.19 0.17 0.10 0.10 0.09 0.07 0.05 0.06 0.08 0.09 0.09 0.09 0.09 0.10
0.06 0.08 0.15 0.07 0.04 0.11 0.13 0.04 0.02 0.01 0.00 0.01 0.01 0.01 0.01 0.07 0.18 0.16 0.03 0.01 0.02 0.01 0.00 0.00 0.00 0.00 0.02 0.11 0.19 0.61 0.74 0.37 0.09 0.21 0.16 0.12 0.08 0.09 0.12 0.14 0.16 0.14 0.12 0.15
0.02 0.06 0.19 0.09 0.09 0.24 0.13 0.02 0.00 0.00 0.00 0.00 0.01 0.01 0.04 0.16 0.27 0.07 0.01 0.01 0.01 0.00 0.00 0.00 0.00 0.00 0.02 0.13 0.53 0.65 0.86 0.35 0.16 0.29 0.47 0.52 0.47 0.39 0.39 0.41 0.40 0.32 0.30 0.29
0.01 0.06 0.18 0.16 0.17 0.09 0.01 0.00 0.00 0.00 0.00 0.00 0.03 0.01 0.02 0.07 0.07 0.03 0.01 0.01 0.01 0.01 0.01 0.01 0.00 0.00 0.01 0.08 0.30 0.32 0.47 0.53 0.56 0.85 0.84 0.80 0.66 0.62 0.87 1.01 0.86 0.75 0.73 0.68
0.02 0.03 0.16 0.10 0.09 0.01 0.01 0.00 0.00 0.02 0.01 0.00 0.04 0.03 0.01 0.02 0.03 0.04 0.00 0.01 0.01 0.01 0.00 0.00 0.01 0.02 0.03 0.06 0.22 0.56 0.97 0.79 0.72 0.81 0.97 0.89 0.78 0.64 0.75 0.70 0.76 0.71 0.63 0.68
0.07 0.10 0.15 0.14 0.15 0.00 0.00 0.00 0.00 0.00 0.01 0.00 0.02 0.05 0.01 0.01 0.00 0.03 0.09 0.07 0.04 0.02 0.03 0.04 0.05 0.14 0.19 0.29 0.61 0.84 0.99 0.90 0.89 0.92 0.79 0.66 0.55 0.71 0.67 0.69 0.53 0.61 0.53 0.41
0.02 0.04 0.06 0.07 0.09 0.01 0.00 0.00 0.00 0.00 0.00 0.00 0.00 0.04 0.04 0.00 0.00 0.00 0.02 0.08 0.10 0.14 0.19 0.07 0.22 0.66 0.79 0.59 0.55 0.45 0.50 0.47 0.26 0.37 0.34 0.37 0.26 0.32 0.42 0.27 0.25 0.23 0.19 0.13
0.00 0.00 0.00 0.00 0.00 0.00 0.00 0.00 0.00 0.00 0.00 0.00 0.01 0.01 0.01 0.02 0.05 0.04 0.01 0.01 0.02 0.04 0.07 0.01 0.07 0.12 0.09 0.04 0.01 0.03 0.05 0.05 0.00 0.00 0.00 0.00 0.00 0.00 0.01 0.00 0.00 0.00 0.00 0.00
0.00 0.00 0.00 0.00 0.00 0.00 0.00 0.00 0.00 0.00 0.00 0.00 0.02 0.02 0.00 0.00 0.00 0.00 0.00 0.00 0.00 0.00 0.00 0.00 0.00 0.00 0.00 0.00 0.00 0.00 0.00 0.00 0.00 0.00 0.00 0.00 0.00 0.00 0.00 0.00 0.00 0.00 0.00 0.01
0.01 0.00 0.00 0.00 0.00 0.00 0.00 0.00 0.00 0.00 0.00 0.00 0.00 0.00 0.00 0.00 0.00 0.00 0.00 0.00 0.00 0.01 0.04 0.07 0.09 0.09 0.05 0.01 0.01 0.01 0.01 0.02 0.03 0.02 0.02 0.01 0.01 0.01 0.01 0.01 0.02 0.01 0.01 0.03
0.00 0.00 0.00 0.00 0.00 0.00 0.00 0.00 0.00 0.00 0.00 0.00 0.00 0.00 0.00 0.00 0.00 0.00 0.00 0.00 0.00 0.00 0.00 0.01 0.06 0.12 0.19 0.19 0.17 0.12 0.08 0.07 0.05 0.05 0.03 0.04 0.02 0.02 0.03 0.04 0.04 0.07 0.05 0.06

GFSCGP_prec_precacc_168.txt.gz
Total_Precipitation_Accumulation
3.54 2.47 1.00 0.73 0.74 0.49 0.55 0.44 0.65 0.56 0.55 0.64 0.95 0.67 0.24 0.16 0.20 0.18 0.07 0.06 0.23 0.51 1.01 1.24 0.89 0.80 0.88 0.78 0.76 0.52 0.42 0.36 0.40 0.58 0.55 0.74 0.91 1.22 1.39 1.14 0.98 0.97 0.90 0.81
2.64 1.35 0.41 0.67 0.92 0.49 0.43 0.39 0.75 0.87 0.71 0.74 0.65 0.86 0.43 0.18 0.16 0.15 0.17 0.13 0.22 0.47 0.89 1.29 1.70 0.88 0.83 1.43 1.62 1.19 0.84 0.79 0.55 0.66 0.65 0.57 0.83 1.05 1.27 1.46 1.27 1.34 1.30 1.13
1.55 0.74 0.58 0.81 1.40 0.68 0.36 0.18 0.44 1.27 0.95 0.65 0.51 0.59 0.70 0.27 0.15 0.14 0.18 0.23 0.35 0.56 0.60 1.05 1.84 1.37 1.22 1.65 1.72 1.46 1.33 1.16 1.25 1.15 1.45 1.28 1.32 1.26 1.60 1.82 1.62 1.55 1.48 1.43
1.89 0.66 0.56 0.88 1.57 0.88 0.64 0.15 0.48 0.87 0.82 0.68 0.37 0.51 0.44 0.32 0.22 0.16 0.25 0.28 0.31 0.43 0.38 0.60 0.95 1.30 1.42 0.94 0.88 1.35 2.38 2.65 1.70 1.71 2.50 2.94 2.86 2.76 2.54 2.86 2.50 1.92 1.69 1.69
1.69 0.91 0.76 0.94 0.95 0.75 0.67 0.33 0.80 0.94 0.72 0.70 0.40 0.67 0.23 0.27 0.24 0.29 0.28 0.17 0.16 0.17 0.34 0.35 0.56 0.82 0.66 0.56 0.58 0.73 1.26 2.07 2.13 2.05 2.51 2.92 2.59 2.11 1.95 2.06 2.69 2.69 2.44 2.02
0.92 0.93 0.93 0.78 0.52 0.27 0.24 0.29 0.76 1.25 1.05 1.07 0.31 0.35 0.22 0.22 0.20 0.40 0.32 0.15 0.27 0.23 0.16 0.32 0.31 0.45 0.45 0.47 0.55 0.51 0.69 1.09 1.90 2.06 2.07 2.41 2.64 2.81 2.41 1.99 2.27 2.19 1.82 1.80
1.50 1.24 0.90 0.77 0.36 0.24 0.29 0.71 1.58 1.70 1.53 0.77 0.23 0.15 0.15 0.11 0.10 0.26 0.38 0.25 0.36 0.49 0.30 0.37 0.59 0.55 0.60 0.60 0.42 0.42 0.52 0.59 0.94 1.36 1.70 1.85 1.56 1.82 1.91 1.80 1.79 1.96 1.93 1.72
1.60 2.00 1.15 0.63 0.28 0.34 0.35 0.65 1.20 1.26 0.58 0.50 0.20 0.25 0.19 0.21 0.19 0.19 0.35 0.47 0.72 0.98 0.55 0.51 0.81 0.99 1.01 0.73 0.65 0.40 0.49 0.33 0.26 0.35 0.63 1.04 1.34 1.71 1.71 1.58 1.52 1.47 1.41 1.55
0.68 1.18 0.58 0.28 0.08 0.16 0.34 0.49 0.39 0.61 0.29 0.45 0.38 0.31 0.39 0.41 0.39 0.28 0.37 0.71 0.96 1.05 0.91 0.79 0.86 1.18 1.02 0.77 0.73 0.69 0.52 0.48 0.20 0.12 0.19 0.23 0.32 0.44 0.65 0.78 0.82 0.97 1.23 1.18
0.17 0.61 0.30 0.16 0.13 0.07 0.08 0.14 0.33 0.62 0.78 0.54 0.30 0.28 0.68 0.68 0.62 0.59 0.65 0.87 1.00 0.91 1.10 0.96 0.88 0.84 0.66 0.57 0.48 0.47 0.34 0.13 0.09 0.09 0.11 0.04 0.07 0.10 0.14 0.17 0.18 0.23 0.40 0.55
0.01 0.20 0.30 0.23 0.26 0.10 0.04 0.14 0.19 0.35 0.62 0.88 0.30 0.24 0.40 0.51 0.48 0.50 0.56 0.72 0.78 0.87 0.82 0.71 0.62 0.44 0.25 0.12 0.08 0.10 0.04 0.05 0.06 0.05 0.03 0.02 0.04 0.06 0.07 0.07 0.05 0.05 0.07 0.08
0.00 0.05 0.12 0.14 0.03 0.01 0.02 0.01 0.06 0.40 0.33 0.52 0.38 0.19 0.05 0.15 0.22 0.24 0.29 0.31 0.33 0.43 0.42 0.34 0.22 0.11 0.05 0.02 0.08 0.12 0.09 0.07 0.03 0.02 0.02 0.02 0.03 0.04 0.05 0.05 0.07 0.07 0.07 0.05
0.00 0.05 0.16 0.20 0.16 0.06 0.06 0.02 0.11 0.23 0.49 0.35 0.33 0.07 0.01 0.06 0.11 0.10 0.10 0.07 0.05 0.04 0.07 0.09 0.08 0.03 0.02 0.06 0.15 0.20 0.12 0.03 0.04 0.04 0.03 0.03 0.04 0.05 0.06 0.06 0.06 0.06 0.06 0.06
0.01 0.03 0.06 0.13 0.11 0.20 0.18 0.03 0.10 0.42 0.59 0.14 0.08 0.00 0.00 0.05 0.04 0.03 0.05 0.02 0.03 0.04 0.07 0.05 0.05 0.01 0.06 0.26 0.31 0.19 0.12 0.10 0.10 0.09 0.07 0.08 0.07 0.08 0.07 0.07 0.06 0.05 0.05 0.05
0.04 0.05 0.02 0.02 0.06 0.22 0.20 0.08 0.07 0.32 0.17 0.25 0.07 0.00 0.01 0.02 0.01 0.03 0.05 0.02 0.03 0.05 0.04 0.02 0.02 0.01 0.05 0.33 0.22 0.18 0.20 0.19 0.16 0.15 0.12 0.07 0.06 0.08 0.07 0.06 0.07 0.05 0.05 0.04
0.05 0.09 0.06 0.06 0.05 0.10 0.16 0.04 0.06 0.06 0.02 0.02 0.01 0.00 0.01 0.00 0.02 0.09 0.08 0.05 0.07 0.06 0.02 0.01 0.00 0.01 0.03 0.12 0.16 0.15 0.19 0.17 0.10 0.10 0.09 0.07 0.05 0.06 0.08 0.09 0.09 0.09 0.09 0.10
0.06 0.08 0.15 0.07 0.04 0.11 0.13 0.04 0.02 0.01 0.00 0.01 0.01 0.01 0.01 0.07 0.19 0.19 0.05 0.03 0.04 0.03 0.01 0.00 0.00 0.01 0.02 0.11 0.19 0.61 0.74 0.37 0.09 0.21 0.16 0.12 0.08 0.09 0.12 0.14 0.16 0.14 0.12 0.15
0.02 0.06 0.19 0.09 0.09 0.24 0.13 0.02 0.00 0.00 0.00 0.00 0.01 0.01 0.04 0.16 0.27 0.08 0.01 0.05 0.04 0.01 0.01 0.00 0.00 0.00 0.02 0.13 0.53 0.65 0.86 0.35 0.16 0.29 0.47 0.52 0.47 0.39 0.39 0.41 0.40 0.32 0.30 0.29
0.01 0.06 0.18 0.16 0.17 0.09 0.01 0.00 0.00 0.00 0.00 0.00 0.03 0.01 0.02 0.07 0.07 0.03 0.01 0.11 0.05 0.01 0.01 0.01 0.00 0.00 0.01 0.08 0.30 0.32 0.47 0.53 0.56 0.85 0.84 0.80 0.66 0.62 0.87 1.01 0.86 0.75 0.73 0.68
0.02 0.03 0.16 0.10 0.09 0.01 0.01 0.00 0.00 0.02 0.01 0.00 0.04 0.03 0.01 0.02 0.03 0.04 0.00 0.06 0.02 0.01 0.00 0.00 0.01 0.02 0.03 0.06 0.22 0.56 0.97 0.79 0.72 0.81 0.97 0.89 0.78 0.64 0.75 0.70 0.76 0.71 0.63 0.68
0.07 0.10 0.15 0.14 0.15 0.00 0.00 0.00 0.00 0.00 0.01 0.00 0.02 0.05 0.01 0.01 0.00 0.03 0.09 0.08 0.04 0.02 0.03 0.04 0.05 0.14 0.19 0.29 0.61 0.84 0.99 0.90 0.89 0.92 0.79 0.66 0.55 0.71 0.67 0.69 0.53 0.61 0.53 0.41
0.02 0.04 0.06 0.07 0.09 0.01 0.00 0.00 0.00 0.00 0.00 0.00 0.00 0.04 0.04 0.00 0.00 0.00 0.02 0.08 0.10 0.14 0.19 0.07 0.22 0.66 0.79 0.59 0.55 0.45 0.50 0.47 0.26 0.37 0.34 0.37 0.26 0.32 0.42 0.27 0.25 0.23 0.19 0.13
0.00 0.00 0.00 0.00 0.00 0.00 0.00 0.00 0.00 0.00 0.00 0.00 0.01 0.01 0.01 0.02 0.05 0.04 0.01 0.01 0.02 0.04 0.07 0.01 0.07 0.12 0.09 0.04 0.01 0.03 0.05 0.05 0.00 0.00 0.00 0.00 0.00 0.00 0.01 0.00 0.00 0.00 0.00 0.00
0.00 0.00 0.00 0.00 0.00 0.00 0.00 0.00 0.00 0.00 0.00 0.00 0.02 0.02 0.00 0.00 0.00 0.00 0.00 0.00 0.00 0.00 0.00 0.00 0.00 0.00 0.00 0.00 0.00 0.00 0.00 0.00 0.00 0.00 0.00 0.00 0.00 0.00 0.00 0.00 0.00 0.00 0.00 0.01
0.01 0.00 0.00 0.00 0.00 0.00 0.00 0.00 0.00 0.00 0.00 0.00 0.00 0.00 0.00 0.00 0.00 0.00 0.00 0.00 0.00 0.01 0.04 0.07 0.09 0.09 0.05 0.01 0.01 0.01 0.01 0.02 0.03 0.02 0.02 0.01 0.01 0.01 0.01 0.01 0.02 0.01 0.01 0.03
0.00 0.00 0.00 0.00 0.00 0.00 0.00 0.00 0.00 0.00 0.00 0.00 0.00 0.00 0.00 0.00 0.00 0.00 0.00 0.00 0.00 0.00 0.00 0.01 0.06 0.12 0.19 0.19 0.17 0.12 0.08 0.07 0.05 0.05 0.03 0.04 0.02 0.02 0.03 0.04 0.04 0.07 0.05 0.06

GFSCGP_prec_precacc_171.txt.gz
Total_Precipitation_Accumulation
3.54 2.47 1.00 0.73 0.74 0.49 0.55 0.44 0.65 0.56 0.55 0.64 0.95 0.67 0.24 0.16 0.20 0.18 0.07 0.06 0.23 0.51 1.01 1.24 0.89 0.81 0.91 0.85 0.86 0.62 0.45 0.39 0.40 0.58 0.55 0.74 0.91 1.22 1.39 1.14 0.98 0.97 0.90 0.81
2.64 1.35 0.41 0.67 0.92 0.49 0.43 0.40 0.76 0.87 0.71 0.75 0.65 0.86 0.43 0.18 0.16 0.15 0.17 0.13 0.22 0.47 0.89 1.29 1.70 0.90 0.88 1.50 1.74 1.27 0.87 0.79 0.55 0.66 0.65 0.57 0.83 1.05 1.27 1.46 1.27 1.34 1.30 1.13
1.55 0.74 0.58 0.81 1.40 0.68 0.36 0.19 0.45 1.27 0.95 0.66 0.52 0.60 0.70 0.27 0.15 0.14 0.18 0.23 0.35 0.56 0.60 1.05 1.84 1.39 1.25 1.72 1.83 1.54 1.37 1.18 1.25 1.15 1.45 1.28 1.32 1.26 1.60 1.82 1.62 1.55 1.48 1.43
1.89 0.66 0.56 0.88 1.57 0.88 0.65 0.15 0.48 0.87 0.85 0.70 0.38 0.54 0.44 0.32 0.22 0.16 0.25 0.28 0.31 0.43 0.38 0.60 0.95 1.32 1.45 1.00 0.95 1.46 2.43 2.68 1.71 1.71 2.50 2.94 2.86 2.76 2.54 2.86 2.50 1.92 1.69 1.69
1.69 0.91 0.76 0.94 0.95 0.75 0.67 0.33 0.80 0.94 0.74 0.75 0.41 0.71 0.23 0.27 0.24 0.29 0.28 0.17 0.16 0.17 0.34 0.35 0.56 0.83 0.79 0.68 0.68 0.85 1.32 2.14 2.13 2.05 2.51 2.92 2.59 2.11 1.95 2.06 2.69 2.69 2.44 2.02
0.92 0.93 0.93 0.78 0.52 0.27 0.24 0.29 0.76 1.25 1.06 1.09 0.31 0.35 0.23 0.23 0.20 0.40 0.32 0.15 0.27 0.23 0.16 0.32 0.31 0.46 0.54 0.60 0.65 0.60 0.73 1.13 1.91 2.06 2.07 2.41 2.64 2.81 2.41 1.99 2.27 2.19 1.82 1.80
1.50 1.24 0.90 0.77 0.36 0.24 0.29 0.72 1.59 1.70 1.53 0.77 0.23 0.16 0.15 0.11 0.10 0.26 0.38 0.25 0.36 0.49 0.30 0.37 0.59 0.56 0.65 0.72 0.51 0.49 0.56 0.61 0.96 1.36 1.70 1.85 1.56 1.82 1.91 1.80 1.79 1.96 1.93 1.72
1.60 2.00 1.15 0.63 0.28 0.34 0.35 0.67 1.30 1.33 0.58 0.50 0.20 0.25 0.19 0.21 0.19 0.19 0.35 0.47 0.72 0.98 0.55 0.51 0.81 1.02 1.05 0.82 0.74 0.43 0.52 0.35 0.29 0.36 0.64 1.04 1.34 1.71 1.71 1.58 1.52 1.47 1.41 1.55
0.68 1.18 0.58 0.28 0.08 0.16 0.34 0.53 0.43 0.66 0.30 0.46 0.38 0.31 0.39 0.41 0.39 0.28 0.38 0.71 0.96 1.05 0.91 0.79 0.86 1.20 1.10 0.85 0.86 0.74 0.55 0.49 0.21 0.16 0.21 0.23 0.32 0.44 0.65 0.78 0.82 0.97 1.23 1.18
0.17 0.62 0.30 0.16 0.13 0.07 0.08 0.14 0.40 0.67 0.83 0.57 0.30 0.28 0.69 0.68 0.62 0.59 0.66 0.88 1.00 0.91 1.10 0.96 0.89 0.86 0.78 0.68 0.68 0.55 0.38 0.14 0.09 0.09 0.13 0.05 0.07 0.10 0.14 0.17 0.18 0.23 0.40 0.55
0.01 0.21 0.30 0.23 0.26 0.10 0.04 0.15 0.21 0.37 0.64 0.95 0.34 0.25 0.40 0.51 0.50 0.51 0.56 0.72 0.78 0.87 0.82 0.71 0.62 0.47 0.38 0.31 0.28 0.18 0.05 0.05 0.06 0.05 0.03 0.02 0.04 0.06 0.07 0.07 0.05 0.05 0.07 0.08
0.00 0.06 0.12 0.14 0.03 0.01 0.02 0.01 0.06 0.46 0.38 0.54 0.43 0.22 0.05 0.16 0.36 0.26 0.29 0.35 0.36 0.45 0.45 0.34 0.23 0.15 0.14 0.25 0.30 0.18 0.11 0.09 0.03 0.02 0.02 0.02 0.03 0.04 0.05 0.05 0.07 0.07 0.07 0.05
0.00 0.05 0.16 0.20 0.16 0.06 0.06 0.02 0.11 0.23 0.51 0.37 0.42 0.09 0.01 0.12 0.24 0.10 0.11 0.14 0.14 0.08 0.11 0.11 0.10 0.08 0.10 0.30 0.32 0.25 0.18 0.04 0.05 0.04 0.03 0.03 0.04 0.05 0.06 0.06 0.06 0.06 0.06 0.06
0.01 0.03 0.06 0.13 0.11 0.20 0.18 0.03 0.10 0.43 0.60 0.14 0.09 0.01 0.00 0.09 0.08 0.03 0.06 0.04 0.07 0.08 0.10 0.07 0.09 0.07 0.15 0.49 0.43 0.25 0.19 0.12 0.11 0.09 0.07 0.08 0.07 0.08 0.07 0.07 0.06 0.05 0.05 0.05
0.04 0.05 0.02 0.02 0.06 0.22 0.20 0.08 0.07 0.32 0.17 0.25 0.07 0.01 0.01 0.02 0.03 0.03 0.06 0.03 0.04 0.07 0.06 0.04 0.06 0.08 0.10 0.45 0.36 0.29 0.25 0.23 0.16 0.15 0.12 0.07 0.06 0.08 0.07 0.06 0.07 0.05 0.05 0.04
0.05 0.09 0.06 0.06 0.05 0.10 0.16 0.04 0.06 0.06 0.02 0.02 0.01 0.00 0.01 0.00 0.08 0.09 0.09 0.05 0.07 0.10 0.06 0.05 0.04 0.05 0.05 0.19 0.27 0.22 0.24 0.20 0.10 0.10 0.09 0.07 0.05 0.06 0.08 0.09 0.09 0.09 0.09 0.10
0.06 0.08 0.15 0.07 0.04 0.11 0.13 0.04 0.02 0.01 0.00 0.01 0.01 0.01 0.01 0.07 0.28 0.24 0.10 0.07 0.10 0.11 0.07 0.04 0.03 0.03 0.02 0.13 0.26 0.64 0.76 0.38 0.09 0.21 0.16 0.12 0.08 0.09 0.12 0.14 0.16 0.14 0.12 0.15
0.02 0.06 0.19 0.09 0.09 0.24 0.13 0.02 0.00 0.00 0.00 0.00 0.01 0.01 0.04 0.16 0.43 0.16 0.03 0.08 0.12 0.04 0.01 0.01 0.01 0.00 0.02 0.13 0.55 0.66 0.86 0.35 0.16 0.29 0.47 0.52 0.47 0.39 0.39 0.41 0.40 0.32 0.30 0.29
0.01 0.06 0.18 0.16 0.17 0.09 0.01 0.00 0.00 0.00 0.00 0.00 0.03 0.01 0.02 0.07 0.10 0.14 0.04 0.18 0.09 0.01 0.01 0.01 0.00 0.00 0.01 0.09 0.30 0.32 0.47 0.53 0.56 0.85 0.84 0.80 0.66 0.62 0.87 1.01 0.86 0.75 0.73 0.68
0.02 0.03 0.16 0.10 0.09 0.01 0.01 0.00 0.00 0.02 0.01 0.00 0.04 0.03 0.01 0.02 0.03 0.04 0.02 0.16 0.04 0.01 0.00 0.00 0.01 0.02 0.03 0.06 0.22 0.56 0.97 0.79 0.72 0.81 0.97 0.89 0.78 0.64 0.75 0.70 0.76 0.71 0.63 0.68
0.07 0.10 0.15 0.14 0.15 0.00 0.00 0.00 0.00 0.00 0.01 0.00 0.02 0.05 0.01 0.01 0.00 0.03 0.11 0.19 0.05 0.02 0.03 0.04 0.05 0.14 0.19 0.29 0.61 0.84 0.99 0.90 0.89 0.92 0.79 0.66 0.55 0.71 0.67 0.69 0.53 0.61 0.53 0.41
0.02 0.04 0.06 0.07 0.09 0.01 0.00 0.00 0.00 0.00 0.00 0.00 0.00 0.04 0.04 0.00 0.00 0.00 0.04 0.12 0.10 0.14 0.19 0.07 0.22 0.66 0.79 0.59 0.55 0.45 0.50 0.47 0.26 0.37 0.34 0.37 0.26 0.32 0.42 0.27 0.25 0.23 0.19 0.13
0.00 0.00 0.00 0.00 0.00 0.00 0.00 0.00 0.00 0.00 0.00 0.00 0.01 0.01 0.01 0.02 0.05 0.04 0.01 0.01 0.02 0.04 0.07 0.01 0.07 0.12 0.09 0.04 0.01 0.03 0.05 0.05 0.00 0.00 0.00 0.00 0.00 0.00 0.01 0.00 0.00 0.00 0.00 0.00
0.00 0.00 0.00 0.00 0.00 0.00 0.00 0.00 0.00 0.00 0.00 0.00 0.02 0.02 0.00 0.00 0.00 0.00 0.00 0.00 0.00 0.00 0.00 0.00 0.00 0.00 0.00 0.00 0.00 0.00 0.00 0.00 0.00 0.00 0.00 0.00 0.00 0.00 0.00 0.00 0.00 0.00 0.00 0.01
0.01 0.00 0.00 0.00 0.00 0.00 0.00 0.00 0.00 0.00 0.00 0.00 0.00 0.00 0.00 0.00 0.00 0.00 0.00 0.00 0.00 0.01 0.04 0.07 0.09 0.09 0.05 0.01 0.01 0.01 0.01 0.02 0.03 0.02 0.02 0.01 0.01 0.01 0.01 0.01 0.02 0.01 0.01 0.03
0.00 0.00 0.00 0.00 0.00 0.00 0.00 0.00 0.00 0.00 0.00 0.00 0.00 0.00 0.00 0.00 0.00 0.00 0.00 0.00 0.00 0.00 0.00 0.01 0.06 0.12 0.19 0.19 0.17 0.12 0.08 0.07 0.05 0.05 0.03 0.04 0.02 0.02 0.03 0.04 0.04 0.07 0.05 0.06

GFSCGP_prec_precacc_174.txt.gz
Total_Precipitation_Accumulation
3.54 2.47 1.00 0.73 0.74 0.49 0.55 0.44 0.65 0.56 0.55 0.64 0.95 0.67 0.24 0.16 0.20 0.18 0.07 0.06 0.23 0.51 1.01 1.24 0.89 0.81 0.91 0.85 0.88 0.71 0.60 0.61 0.62 0.61 0.56 0.74 0.91 1.22 1.39 1.14 0.98 0.97 0.90 0.81
2.64 1.35 0.41 0.67 0.92 0.49 0.43 0.40 0.76 0.87 0.71 0.75 0.65 0.86 0.43 0.18 0.16 0.15 0.17 0.13 0.22 0.47 0.89 1.29 1.70 0.90 0.88 1.50 1.75 1.36 1.10 0.95 0.73 0.74 0.66 0.57 0.83 1.05 1.27 1.46 1.27 1.34 1.30 1.13
1.55 0.74 0.58 0.81 1.40 0.68 0.36 0.19 0.45 1.27 0.95 0.66 0.52 0.60 0.70 0.27 0.15 0.14 0.18 0.23 0.35 0.56 0.60 1.05 1.84 1.39 1.25 1.72 1.84 1.62 1.50 1.50 1.37 1.20 1.46 1.28 1.32 1.26 1.60 1.82 1.62 1.55 1.48 1.43
1.89 0.66 0.56 0.88 1.57 0.88 0.65 0.15 0.48 0.87 0.85 0.71 0.39 0.55 0.44 0.32 0.22 0.16 0.25 0.28 0.31 0.43 0.38 0.60 0.95 1.32 1.45 1.01 0.97 1.53 2.55 2.95 1.98 1.75 2.51 2.94 2.86 2.76 2.54 2.86 2.50 1.92 1.69 1.69
1.69 0.91 0.76 0.94 0.95 0.75 0.67 0.33 0.80 0.94 0.75 0.76 0.42 0.73 0.23 0.27 0.24 0.29 0.28 0.17 0.16 0.17 0.34 0.35 0.56 0.83 0.79 0.70 0.72 0.92 1.46 2.32 2.34 2.14 2.51 2.92 2.59 2.11 1.95 2.06 2.69 2.69 2.44 2.02
0.92 0.93 0.93 0.78 0.52 0.27 0.24 0.29 0.76 1.25 1.07 1.11 0.31 0.36 0.23 0.23 0.20 0.40 0.32 0.15 0.27 0.23 0.16 0.32 0.31 0.46 0.55 0.63 0.75 0.68 0.97 1.38 2.07 2.14 2.08 2.41 2.64 2.81 2.41 1.99 2.27 2.19 1.82 1.80
1.50 1.24 0.90 0.77 0.36 0.24 0.29 0.73 1.60 1.71 1.54 0.77 0.23 0.16 0.15 0.11 0.10 0.26 0.38 0.25 0.36 0.49 0.30 0.37 0.59 0.56 0.65 0.76 0.59 0.59 0.85 0.92 1.26 1.41 1.70 1.85 1.56 1.82 1.91 1.80 1.79 1.96 1.93 1.72
1.60 2.00 1.15 0.63 0.28 0.34 0.35 0.68 1.37 1.42 0.58 0.50 0.20 0.25 0.19 0.21 0.19 0.19 0.35 0.47 0.72 0.98 0.55 0.51 0.81 1.02 1.05 0.86 0.84 0.52 0.71 0.74 0.54 0.41 0.64 1.04 1.34 1.71 1.71 1.58 1.52 1.47 1.41 1.55
0.68 1.18 0.58 0.28 0.08 0.16 0.34 0.53 0.44 0.74 0.31 0.48 0.38 0.31 0.39 0.41 0.39 0.28 0.38 0.71 0.96 1.05 0.91 0.79 0.86 1.20 1.11 0.88 0.98 0.86 0.67 0.73 0.41 0.24 0.21 0.23 0.32 0.44 0.65 0.78 0.82 0.97 1.23 1.18
0.17 0.62 0.30 0.16 0.13 0.07 0.08 0.15 0.44 0.71 0.86 0.58 0.31 0.28 0.69 0.68 0.62 0.63 0.67 0.88 1.00 0.91 1.10 0.96 0.89 0.86 0.78 0.70 0.84 0.78 0.49 0.21 0.20 0.14 0.13 0.05 0.07 0.10 0.14 0.17 0.18 0.23 0.40 0.55
0.01 0.21 0.30 0.23 0.26 0.10 0.04 0.15 0.23 0.42 0.65 0.99 0.36 0.25 0.40 0.51 0.54 0.71 0.58 0.72 0.78 0.87 0.82 0.72 0.62 0.47 0.39 0.33 0.53 0.59 0.22 0.07 0.09 0.09 0.03 0.02 0.04 0.06 0.07 0.07 0.05 0.05 0.07 0.08
0.00 0.06 0.12 0.14 0.03 0.01 0.02 0.01 0.07 0.55 0.42 0.57 0.47 0.23 0.05 0.17 0.41 0.33 0.29 0.35 0.37 0.46 0.45 0.35 0.24 0.15 0.16 0.35 0.54 0.67 0.37 0.13 0.05 0.03 0.02 0.02 0.03 0.04 0.05 0.05 0.07 0.07 0.07 0.05
0.00 0.05 0.16 0.20 0.16 0.06 0.06 0.02 0.11 0.26 0.55 0.38 0.46 0.10 0.01 0.13 0.24 0.10 0.11 0.15 0.16 0.08 0.11 0.11 0.10 0.08 0.12 0.37 0.67 0.72 0.43 0.11 0.06 0.05 0.03 0.03 0.04 0.05 0.06 0.06 0.06 0.06 0.06 0.06
0.01 0.03 0.06 0.13 0.11 0.20 0.18 0.03 0.10 0.44 0.62 0.14 0.09 0.01 0.00 0.09 0.08 0.04 0.06 0.10 0.11 0.10 0.12 0.08 0.09 0.09 0.17 0.69 0.87 0.63 0.41 0.26 0.13 0.09 0.07 0.08 0.07 0.08 0.07 0.07 0.06 0.05 0.05 0.05
0.04 0.05 0.02 0.02 0.06 0.22 0.20 0.08 0.07 0.32 0.17 0.25 0.07 0.01 0.01 0.02 0.06 0.09 0.07 0.04 0.10 0.12 0.09 0.06 0.07 0.12 0.19 0.92 0.76 0.55 0.38 0.27 0.17 0.15 0.12 0.07 0.06 0.08 0.07 0.06 0.07 0.05 0.05 0.04
0.05 0.09 0.06 0.06 0.05 0.10 0.16 0.04 0.06 0.06 0.02 0.02 0.01 0.00 0.01 0.01 0.15 0.14 0.10 0.06 0.11 0.13 0.07 0.05 0.06 0.13 0.22 0.52 0.61 0.36 0.32 0.23 0.12 0.10 0.09 0.07 0.05 0.06 0.08 0.09 0.09 0.09 0.09 0.10
0.06 0.08 0.15 0.07 0.04 0.11 0.13 0.04 0.02 0.01 0.00 0.01 0.01 0.01 0.01 0.09 0.43 0.28 0.10 0.07 0.11 0.13 0.09 0.05 0.06 0.18 0.11 0.25 0.43 0.72 0.82 0.41 0.11 0.21 0.16 0.12 0.08 0.09 0.12 0.14 0.16 0.14 0.12 0.15
0.02 0.06 0.19 0.09 0.09 0.24 0.13 0.02 0.00 0.00 0.00 0.00 0.01 0.01 0.04 0.21 0.74 0.25 0.04 0.09 0.14 0.07 0.03 0.02 0.04 0.11 0.07 0.16 0.61 0.70 0.90 0.37 0.17 0.30 0.47 0.52 0.47 0.39 0.39 0.41 0.40 0.32 0.30 0.29
0.01 0.06 0.18 0.16 0.17 0.09 0.01 0.00 0.00 0.00 0.00 0.00 0.03 0.01 0.02 0.07 0.20 0.24 0.07 0.31 0.11 0.02 0.01 0.01 0.01 0.05 0.09 0.18 0.34 0.35 0.51 0.56 0.56 0.85 0.84 0.80 0.66 0.62 0.87 1.01 0.86 0.75 0.73 0.68
0.02 0.03 0.16 0.10 0.09 0.01 0.01 0.00 0.00 0.02 0.01 0.00 0.04 0.03 0.01 0.02 0.04 0.07 0.26 0.28 0.05 0.02 0.00 0.00 0.01 0.03 0.08 0.14 0.24 0.57 0.98 0.80 0.73 0.81 0.97 0.89 0.78 0.64 0.75 0.70 0.76 0.71 0.63 0.68
0.07 0.10 0.15 0.14 0.15 0.00 0.00 0.00 0.00 0.00 0.01 0.00 0.02 0.05 0.01 0.01 0.00 0.03 0.22 0.22 0.05 0.02 0.03 0.04 0.05 0.15 0.19 0.30 0.61 0.84 0.99 0.90 0.89 0.92 0.79 0.66 0.55 0.71 0.67 0.69 0.53 0.61 0.53 0.41
0.02 0.04 0.06 0.07 0.09 0.01 0.00 0.00 0.00 0.00 0.00 0.00 0.00 0.04 0.04 0.00 0.00 0.01 0.09 0.17 0.10 0.14 0.19 0.07 0.22 0.66 0.79 0.59 0.55 0.45 0.50 0.47 0.26 0.37 0.34 0.37 0.26 0.32 0.42 0.27 0.25 0.23 0.19 0.13
0.00 0.00 0.00 0.00 0.00 0.00 0.00 0.00 0.00 0.00 0.00 0.00 0.01 0.01 0.01 0.02 0.05 0.05 0.04 0.04 0.02 0.04 0.07 0.01 0.07 0.12 0.09 0.04 0.01 0.03 0.05 0.05 0.00 0.00 0.00 0.00 0.00 0.00 0.01 0.00 0.00 0.00 0.00 0.00
0.00 0.00 0.00 0.00 0.00 0.00 0.00 0.00 0.00 0.00 0.00 0.00 0.02 0.02 0.00 0.00 0.00 0.00 0.01 0.01 0.00 0.00 0.00 0.00 0.00 0.00 0.00 0.00 0.00 0.00 0.00 0.00 0.00 0.00 0.00 0.00 0.00 0.00 0.00 0.00 0.00 0.00 0.00 0.01
0.01 0.00 0.00 0.00 0.00 0.00 0.00 0.00 0.00 0.00 0.00 0.00 0.00 0.00 0.00 0.00 0.00 0.00 0.00 0.00 0.00 0.01 0.04 0.07 0.09 0.09 0.05 0.01 0.01 0.01 0.01 0.02 0.03 0.02 0.02 0.01 0.01 0.01 0.01 0.01 0.02 0.01 0.01 0.03
0.00 0.00 0.00 0.00 0.00 0.00 0.00 0.00 0.00 0.00 0.00 0.00 0.00 0.00 0.00 0.00 0.00 0.00 0.00 0.00 0.00 0.00 0.00 0.01 0.06 0.12 0.19 0.19 0.17 0.12 0.08 0.07 0.05 0.05 0.03 0.04 0.02 0.02 0.03 0.04 0.04 0.07 0.05 0.06

GFSCGP_prec_precacc_177.txt.gz
Total_Precipitation_Accumulation
3.54 2.47 1.00 0.73 0.74 0.49 0.55 0.44 0.65 0.56 0.55 0.64 0.95 0.67 0.24 0.16 0.20 0.18 0.07 0.06 0.23 0.51 1.01 1.24 0.89 0.81 0.91 0.85 0.88 0.71 0.61 0.72 0.95 1.10 0.92 0.78 0.93 1.25 1.39 1.14 0.98 0.97 0.90 0.81
2.64 1.35 0.41 0.67 0.92 0.49 0.43 0.40 0.76 0.87 0.71 0.75 0.65 0.86 0.43 0.18 0.16 0.15 0.17 0.13 0.22 0.47 0.89 1.29 1.70 0.90 0.88 1.50 1.77 1.36 1.11 1.01 0.94 1.07 0.97 0.69 0.86 1.06 1.27 1.46 1.27 1.34 1.30 1.13
1.55 0.74 0.58 0.81 1.40 0.68 0.36 0.19 0.45 1.27 0.95 0.66 0.52 0.60 0.70 0.27 0.15 0.14 0.18 0.23 0.35 0.56 0.60 1.05 1.84 1.39 1.25 1.72 1.86 1.62 1.50 1.54 1.46 1.48 1.86 1.42 1.37 1.27 1.60 1.82 1.62 1.55 1.48 1.43
1.89 0.66 0.56 0.88 1.57 0.88 0.65 0.15 0.48 0.87 0.86 0.71 0.40 0.57 0.44 0.32 0.22 0.16 0.25 0.28 0.31 0.43 0.38 0.60 0.95 1.32 1.45 1.02 1.00 1.53 2.55 2.97 2.11 1.90 2.75 3.31 2.94 2.77 2.54 2.86 2.50 1.92 1.69 1.69
1.69 0.91 0.76 0.94 0.95 0.75 0.67 0.33 0.80 0.94 0.75 0.78 0.42 0.76 0.23 0.27 0.24 0.29 0.28 0.17 0.16 0.17 0.34 0.35 0.56 0.83 0.79 0.73 0.75 0.93 1.47 2.35 2.42 2.45 2.66 3.14 2.84 2.16 1.95 2.06 2.69 2.69 2.44 2.02
0.92 0.93 0.93 0.78 0.52 0.27 0.24 0.29 0.76 1.25 1.07 1.12 0.31 0.36 0.23 0.23 0.20 0.40 0.32 0.15 0.27 0.23 0.16 0.32 0.31 0.46 0.55 0.66 0.76 0.69 0.99 1.45 2.15 2.39 2.35 2.51 2.76 2.86 2.41 1.99 2.27 2.19 1.82 1.80
1.50 1.24 0.90 0.77 0.36 0.24 0.29 0.74 1.61 1.71 1.55 0.78 0.23 0.16 0.15 0.11 0.10 0.26 0.38 0.25 0.36 0.49 0.30 0.37 0.59 0.56 0.66 0.77 0.60 0.60 0.88 0.98 1.41 1.61 1.93 1.97 1.59 1.84 1.91 1.80 1.79 1.96 1.93 1.72
1.60 2.00 1.15 0.63 0.28 0.34 0.35 0.69 1.41 1.47 0.59 0.50 0.20 0.25 0.19 0.21 0.19 0.19 0.35 0.47 0.72 0.98 0.55 0.51 0.81 1.02 1.05 0.87 0.85 0.55 0.79 0.86 0.79 0.73 0.78 1.11 1.37 1.72 1.71 1.58 1.52 1.47 1.41 1.55
0.68 1.18 0.58 0.28 0.08 0.16 0.34 0.54 0.47 0.79 0.32 0.49 0.38 0.31 0.39 0.41 0.39 0.28 0.38 0.71 0.96 1.05 0.91 0.79 0.86 1.20 1.11 0.88 0.99 0.90 0.82 0.89 0.66 0.58 0.30 0.29 0.32 0.44 0.65 0.78 0.82 0.97 1.23 1.18
0.17 0.62 0.30 0.16 0.13 0.07 0.08 0.15 0.45 0.74 0.89 0.59 0.31 0.28 0.69 0.68 0.62 0.63 0.67 0.88 1.00 0.91 1.10 0.96 0.89 0.86 0.78 0.71 0.85 0.88 0.69 0.42 0.35 0.37 0.30 0.07 0.07 0.10 0.14 0.17 0.18 0.23 0.40 0.55
0.01 0.21 0.30 0.23 0.26 0.10 0.04 0.15 0.25 0.46 0.67 1.03 0.38 0.25 0.40 0.51 0.54 0.71 0.58 0.72 0.79 0.87 0.82 0.72 0.63 0.47 0.40 0.35 0.54 0.75 0.55 0.33 0.21 0.20 0.23 0.06 0.04 0.06 0.07 0.07 0.05 0.05 0.07 0.08
0.00 0.06 0.12 0.14 0.03 0.01 0.02 0.01 0.08 0.59 0.46 0.60 0.50 0.24 0.05 0.17 0.41 0.34 0.33 0.37 0.39 0.47 0.45 0.35 0.25 0.17 0.18 0.36 0.58 1.05 0.80 0.40 0.12 0.12 0.16 0.13 0.04 0.04 0.05 0.05 0.07 0.07 0.07 0.05
0.00 0.05 0.16 0.20 0.16 0.06 0.06 0.02 0.11 0.27 0.58 0.40 0.49 0.11 0.01 0.13 0.24 0.15 0.17 0.21 0.18 0.10 0.12 0.13 0.14 0.11 0.14 0.38 0.69 1.03 0.88 0.45 0.11 0.11 0.12 0.15 0.08 0.06 0.06 0.06 0.06 0.06 0.06 0.06
0.01 0.03 0.06 0.13 0.11 0.20 0.18 0.03 0.10 0.44 0.63 0.15 0.09 0.01 0.00 0.09 0.10 0.08 0.09 0.16 0.13 0.12 0.13 0.10 0.11 0.11 0.18 0.70 0.88 0.75 0.82 0.52 0.28 0.12 0.14 0.14 0.13 0.10 0.08 0.07 0.06 0.05 0.05 0.05
0.04 0.05 0.02 0.02 0.06 0.22 0.20 0.08 0.07 0.32 0.17 0.25 0.07 0.01 0.01 0.03 0.15 0.21 0.12 0.13 0.13 0.14 0.12 0.07 0.08 0.12 0.19 0.92 0.77 0.59 0.61 0.58 0.42 0.25 0.18 0.13 0.07 0.08 0.07 0.06 0.07 0.05 0.05 0.04
0.05 0.09 0.06 0.06 0.05 0.10 0.16 0.04 0.06 0.06 0.02 0.02 0.01 0.00 0.01 0.03 0.30 0.21 0.17 0.33 0.25 0.17 0.11 0.06 0.07 0.13 0.22 0.55 0.63 0.40 0.43 0.42 0.29 0.16 0.13 0.09 0.05 0.06 0.08 0.09 0.09 0.09 0.09 0.10
0.06 0.08 0.15 0.07 0.04 0.11 0.13 0.04 0.02 0.01 0.00 0.01 0.01 0.01 0.02 0.12 0.53 0.30 0.12 0.12 0.16 0.19 0.11 0.06 0.10 0.29 0.15 0.34 0.49 0.80 0.94 0.53 0.20 0.24 0.18 0.12 0.08 0.09 0.12 0.14 0.16 0.14 0.12 0.15
0.02 0.06 0.19 0.09 0.09 0.24 0.13 0.02 0.00 0.00 0.00 0.00 0.01 0.01 0.04 0.23 0.83 0.32 0.06 0.12 0.17 0.09 0.04 0.05 0.17 0.29 0.17 0.27 0.68 0.82 0.99 0.50 0.29 0.32 0.47 0.52 0.47 0.39 0.39 0.41 0.40 0.32 0.30 0.29
0.01 0.06 0.18 0.16 0.17 0.09 0.01 0.00 0.00 0.00 0.00 0.00 0.03 0.01 0.02 0.07 0.21 0.26 0.08 0.32 0.13 0.03 0.06 0.06 0.12 0.22 0.18 0.25 0.41 0.44 0.62 0.67 0.69 0.88 0.85 0.80 0.66 0.62 0.87 1.01 0.86 0.75 0.73 0.68
0.02 0.03 0.16 0.10 0.09 0.01 0.01 0.00 0.00 0.02 0.01 0.00 0.04 0.03 0.01 0.02 0.04 0.10 0.32 0.30 0.07 0.03 0.03 0.10 0.28 0.33 0.31 0.28 0.33 0.68 1.10 0.89 0.82 0.86 0.98 0.89 0.78 0.64 0.75 0.70 0.76 0.71 0.63 0.68
0.07 0.10 0.15 0.14 0.15 0.00 0.00 0.00 0.00 0.00 0.01 0.00 0.02 0.05 0.01 0.01 0.00 0.04 0.27 0.26 0.12 0.12 0.20 0.15 0.14 0.29 0.34 0.41 0.75 0.97 1.07 0.96 0.92 0.92 0.79 0.66 0.55 0.71 0.67 0.69 0.53 0.61 0.53 0.41
0.02 0.04 0.06 0.07 0.09 0.01 0.00 0.00 0.00 0.00 0.00 0.00 0.00 0.04 0.04 0.00 0.00 0.01 0.11 0.17 0.12 0.16 0.24 0.10 0.25 0.72 0.86 0.64 0.61 0.49 0.52 0.47 0.26 0.37 0.34 0.37 0.26 0.32 0.42 0.27 0.25 0.23 0.19 0.13
0.00 0.00 0.00 0.00 0.00 0.00 0.00 0.00 0.00 0.00 0.00 0.00 0.01 0.01 0.01 0.02 0.05 0.05 0.05 0.04 0.02 0.04 0.10 0.04 0.09 0.13 0.11 0.07 0.02 0.03 0.05 0.05 0.00 0.00 0.00 0.00 0.00 0.00 0.01 0.00 0.00 0.00 0.00 0.00
0.00 0.00 0.00 0.00 0.00 0.00 0.00 0.00 0.00 0.00 0.00 0.00 0.02 0.02 0.00 0.00 0.00 0.00 0.01 0.01 0.00 0.01 0.00 0.00 0.00 0.00 0.00 0.00 0.00 0.00 0.00 0.00 0.00 0.00 0.00 0.00 0.00 0.00 0.00 0.00 0.00 0.00 0.00 0.01
0.01 0.00 0.00 0.00 0.00 0.00 0.00 0.00 0.00 0.00 0.00 0.00 0.00 0.00 0.00 0.00 0.00 0.00 0.00 0.00 0.00 0.01 0.04 0.07 0.09 0.09 0.05 0.01 0.01 0.01 0.01 0.02 0.03 0.02 0.02 0.01 0.01 0.01 0.01 0.01 0.02 0.01 0.01 0.03
0.00 0.00 0.00 0.00 0.00 0.00 0.00 0.00 0.00 0.00 0.00 0.00 0.00 0.00 0.00 0.00 0.00 0.00 0.00 0.00 0.00 0.00 0.00 0.01 0.06 0.12 0.19 0.19 0.17 0.12 0.08 0.07 0.05 0.05 0.03 0.04 0.02 0.02 0.03 0.04 0.04 0.07 0.05 0.06

GFSCGP_prec_precacc_183.txt.gz
Total_Precipitation_Accumulation
3.54 2.47 1.00 0.73 0.74 0.49 0.55 0.44 0.65 0.56 0.55 0.64 0.95 0.67 0.24 0.16 0.20 0.18 0.07 0.06 0.23 0.51 1.01 1.24 0.89 0.81 0.91 0.85 0.88 0.71 0.61 0.72 0.95 1.11 0.99 0.98 1.26 1.71 1.88 1.42 1.18 1.10 0.92 0.81
2.64 1.35 0.41 0.67 0.92 0.49 0.43 0.40 0.76 0.87 0.71 0.75 0.65 0.86 0.43 0.18 0.16 0.15 0.17 0.13 0.22 0.47 0.89 1.29 1.70 0.90 0.88 1.50 1.77 1.37 1.11 1.01 0.94 1.07 1.00 0.90 1.00 1.20 1.63 1.89 1.49 1.43 1.34 1.13
1.55 0.74 0.58 0.81 1.40 0.68 0.36 0.19 0.45 1.27 0.95 0.66 0.52 0.60 0.70 0.27 0.15 0.14 0.18 0.23 0.35 0.56 0.60 1.05 1.84 1.39 1.25 1.72 1.87 1.62 1.51 1.54 1.46 1.48 1.88 1.58 1.60 1.47 1.70 2.10 1.90 1.77 1.52 1.43
1.89 0.66 0.56 0.88 1.57 0.88 0.65 0.15 0.48 0.87 0.86 0.71 0.40 0.60 0.44 0.32 0.22 0.16 0.25 0.28 0.31 0.43 0.38 0.60 0.95 1.32 1.45 1.02 1.03 1.53 2.55 2.98 2.12 1.91 2.77 3.41 3.11 2.94 2.71 2.93 2.66 2.08 1.81 1.70
1.69 0.91 0.76 0.94 0.95 0.75 0.67 0.33 0.80 0.94 0.75 0.79 0.42 0.78 0.23 0.27 0.24 0.29 0.28 0.17 0.16 0.17 0.34 0.35 0.56 0.83 0.79 0.73 0.77 0.94 1.48 2.35 2.43 2.47 2.68 3.17 3.04 2.43 2.15 2.20 2.76 2.79 2.49 2.03
0.92 0.93 0.93 0.78 0.52 0.27 0.24 0.29 0.76 1.25 1.07 1.13 0.31 0.38 0.23 0.23 0.20 0.40 0.32 0.15 0.27 0.23 0.16 0.32 0.31 0.46 0.55 0.66 0.78 0.69 1.00 1.46 2.17 2.43 2.42 2.63 2.87 3.14 2.69 2.19 2.38 2.23 1.84 1.80
1.50 1.24 0.90 0.77 0.36 0.24 0.29 0.74 1.61 1.72 1.56 0.79 0.23 0.16 0.15 0.11 0.10 0.26 0.38 0.25 0.36 0.49 0.30 0.37 0.59 0.56 0.66 0.78 0.60 0.61 0.89 1.03 1.49 1.68 2.07 2.18 1.76 2.01 2.11 1.96 1.92 2.02 1.94 1.72
1.60 2.00 1.15 0.63 0.28 0.34 0.35 0.69 1.41 1.50 0.59 0.50 0.20 0.26 0.19 0.21 0.19 0.19 0.35 0.47 0.72 0.98 0.55 0.51 0.81 1.02 1.05 0.88 0.85 0.56 0.82 0.90 0.88 0.88 0.93 1.31 1.54 1.90 1.85 1.67 1.57 1.52 1.42 1.55
0.68 1.18 0.58 0.28 0.08 0.16 0.34 0.54 0.47 0.82 0.32 0.49 0.38 0.31 0.39 0.41 0.39 0.28 0.38 0.71 0.96 1.05 0.91 0.79 0.86 1.20 1.12 0.89 0.99 0.92 0.86 0.95 0.75 0.75 0.45 0.40 0.48 0.62 0.80 0.87 0.85 0.98 1.24 1.19
0.17 0.62 0.30 0.16 0.13 0.07 0.08 0.15 0.45 0.76 0.92 0.60 0.31 0.28 0.69 0.68 0.62 0.63 0.67 0.88 1.00 0.91 1.11 0.97 0.90 0.91 0.85 0.72 0.87 0.93 0.77 0.55 0.49 0.57 0.49 0.16 0.18 0.24 0.30 0.26 0.21 0.23 0.41 0.55
0.01 0.21 0.30 0.23 0.26 0.10 0.04 0.15 0.25 0.50 0.69 1.06 0.40 0.25 0.40 0.51 0.55 0.71 0.59 0.76 0.80 0.88 0.84 0.75 0.67 0.58 0.53 0.40 0.58 0.80 0.67 0.52 0.43 0.45 0.51 0.23 0.17 0.18 0.17 0.16 0.07 0.05 0.07 0.08
0.00 0.06 0.12 0.14 0.03 0.01 0.02 0.01 0.08 0.61 0.47 0.61 0.52 0.26 0.05 0.17 0.41 0.35 0.41 0.45 0.43 0.50 0.56 0.51 0.47 0.31 0.27 0.44 0.67 1.17 1.03 0.68 0.42 0.42 0.42 0.34 0.15 0.14 0.15 0.14 0.09 0.07 0.07 0.05
0.00 0.05 0.16 0.20 0.16 0.06 0.06 0.02 0.11 0.27 0.59 0.41 0.52 0.12 0.01 0.13 0.25 0.16 0.26 0.39 0.22 0.13 0.22 0.25 0.32 0.38 0.18 0.46 0.77 1.19 1.12 0.73 0.46 0.49 0.40 0.38 0.22 0.13 0.14 0.14 0.08 0.07 0.06 0.06
0.01 0.03 0.06 0.13 0.11 0.20 0.18 0.03 0.10 0.44 0.63 0.15 0.09 0.01 0.00 0.09 0.10 0.10 0.29 0.45 0.16 0.14 0.22 0.25 0.16 0.15 0.27 0.77 0.92 0.86 1.08 0.90 0.65 0.49 0.42 0.36 0.30 0.17 0.11 0.10 0.07 0.06 0.05 0.05
0.04 0.05 0.02 0.02 0.06 0.22 0.20 0.08 0.07 0.32 0.17 0.26 0.07 0.01 0.01 0.03 0.17 0.31 0.65 0.61 0.16 0.16 0.15 0.14 0.13 0.21 0.28 0.98 0.81 0.76 0.84 1.08 0.88 0.62 0.57 0.40 0.20 0.15 0.10 0.07 0.07 0.06 0.05 0.04
0.05 0.09 0.06 0.06 0.05 0.10 0.16 0.04 0.06 0.06 0.02 0.02 0.01 0.00 0.01 0.03 0.31 0.23 0.66 0.71 0.28 0.19 0.12 0.09 0.14 0.20 0.28 0.61 0.72 0.51 0.65 0.97 0.91 0.62 0.57 0.40 0.14 0.08 0.09 0.09 0.09 0.09 0.09 0.10
0.06 0.08 0.15 0.07 0.04 0.11 0.13 0.04 0.02 0.01 0.00 0.01 0.01 0.01 0.02 0.12 0.53 0.31 0.48 0.41 0.22 0.23 0.12 0.09 0.16 0.42 0.23 0.39 0.66 0.90 1.06 0.82 0.70 0.66 0.61 0.45 0.20 0.13 0.12 0.14 0.16 0.14 0.12 0.15
0.02 0.06 0.19 0.09 0.09 0.24 0.13 0.02 0.00 0.00 0.00 0.00 0.01 0.01 0.04 0.23 0.83 0.33 0.27 0.55 0.31 0.16 0.11 0.36 0.49 0.43 0.27 0.54 1.08 0.92 1.08 0.60 0.50 0.54 0.74 0.74 0.58 0.43 0.40 0.41 0.40 0.32 0.30 0.29
0.01 0.06 0.18 0.16 0.17 0.09 0.01 0.00 0.00 0.00 0.00 0.00 0.03 0.01 0.02 0.07 0.21 0.26 0.14 0.63 0.47 0.29 0.40 0.38 0.42 0.49 0.42 0.50 0.67 0.58 0.70 0.73 0.78 0.99 1.00 0.92 0.71 0.64 0.88 1.01 0.86 0.75 0.73 0.68
0.02 0.03 0.16 0.10 0.09 0.01 0.01 0.00 0.00 0.02 0.01 0.00 0.04 0.03 0.01 0.02 0.04 0.10 0.33 0.39 0.31 0.40 0.39 0.48 0.61 0.64 0.54 0.49 0.56 0.91 1.30 1.08 1.03 0.98 1.07 0.95 0.79 0.64 0.75 0.70 0.76 0.71 0.63 0.68
0.07 0.10 0.15 0.14 0.15 0.00 0.00 0.00 0.00 0.00 0.01 0.00 0.02 0.05 0.01 0.01 0.00 0.04 0.27 0.31 0.22 0.29 0.38 0.38 0.41 0.54 0.55 0.61 0.99 1.28 1.33 1.20 1.11 1.05 0.85 0.68 0.55 0.71 0.67 0.69 0.53 0.61 0.53 0.41
0.02 0.04 0.06 0.07 0.10 0.01 0.00 0.00 0.00 0.00 0.00 0.00 0.00 0.04 0.04 0.00 0.00 0.01 0.12 0.26 0.20 0.23 0.28 0.16 0.33 0.79 0.93 0.75 0.81 0.75 0.73 0.62 0.37 0.43 0.36 0.37 0.26 0.32 0.42 0.27 0.25 0.23 0.19 0.13
0.00 0.00 0.00 0.00 0.00 0.00 0.00 0.00 0.00 0.00 0.00 0.00 0.01 0.01 0.01 0.02 0.05 0.05 0.05 0.04 0.03 0.09 0.21 0.09 0.11 0.15 0.19 0.19 0.14 0.14 0.14 0.12 0.05 0.02 0.00 0.00 0.00 0.00 0.01 0.00 0.00 0.00 0.00 0.00
0.00 0.00 0.00 0.00 0.00 0.00 0.00 0.00 0.00 0.00 0.00 0.00 0.02 0.02 0.00 0.00 0.00 0.00 0.01 0.01 0.01 0.04 0.06 0.05 0.06 0.05 0.05 0.04 0.04 0.02 0.01 0.01 0.01 0.00 0.00 0.00 0.00 0.00 0.00 0.00 0.00 0.00 0.00 0.01
0.01 0.00 0.00 0.00 0.00 0.00 0.00 0.00 0.00 0.00 0.00 0.00 0.00 0.00 0.00 0.00 0.00 0.00 0.00 0.00 0.01 0.02 0.04 0.08 0.11 0.11 0.06 0.02 0.02 0.02 0.01 0.02 0.03 0.02 0.02 0.01 0.01 0.01 0.01 0.01 0.02 0.01 0.01 0.03
0.00 0.00 0.00 0.00 0.00 0.00 0.00 0.00 0.00 0.00 0.00 0.00 0.00 0.00 0.00 0.00 0.00 0.00 0.00 0.00 0.00 0.00 0.00 0.02 0.06 0.13 0.19 0.20 0.17 0.12 0.08 0.07 0.05 0.05 0.03 0.04 0.02 0.02 0.03 0.04 0.04 0.07 0.05 0.06

GFSCGP_prec_precacc_189.txt.gz
Total_Precipitation_Accumulation
3.54 2.47 1.00 0.73 0.74 0.49 0.55 0.44 0.65 0.56 0.55 0.64 0.95 0.67 0.24 0.16 0.20 0.18 0.07 0.06 0.23 0.51 1.01 1.24 0.89 0.81 0.91 0.85 0.88 0.71 0.61 0.72 0.95 1.11 0.99 0.99 1.26 1.71 1.88 1.42 1.19 1.13 1.06 1.07
2.64 1.35 0.41 0.67 0.92 0.49 0.43 0.40 0.76 0.87 0.71 0.75 0.65 0.86 0.43 0.18 0.16 0.15 0.17 0.13 0.22 0.47 0.89 1.29 1.70 0.90 0.88 1.50 1.77 1.37 1.11 1.01 0.94 1.07 1.00 0.90 1.00 1.20 1.63 1.89 1.49 1.43 1.38 1.29
1.55 0.74 0.58 0.81 1.40 0.68 0.36 0.19 0.45 1.27 0.95 0.66 0.52 0.60 0.70 0.27 0.15 0.14 0.18 0.23 0.35 0.56 0.60 1.05 1.84 1.39 1.25 1.72 1.87 1.62 1.51 1.54 1.46 1.48 1.88 1.58 1.60 1.47 1.70 2.10 1.90 1.77 1.54 1.46
1.89 0.66 0.56 0.88 1.57 0.88 0.65 0.15 0.48 0.87 0.86 0.71 0.40 0.60 0.44 0.32 0.22 0.16 0.25 0.28 0.31 0.43 0.38 0.60 0.95 1.32 1.45 1.02 1.03 1.53 2.55 2.98 2.12 1.91 2.77 3.41 3.11 2.94 2.71 2.93 2.66 2.09 1.82 1.71
1.69 0.91 0.76 0.94 0.95 0.75 0.67 0.33 0.80 0.94 0.75 0.79 0.42 0.78 0.23 0.27 0.24 0.29 0.28 0.17 0.16 0.17 0.34 0.35 0.56 0.83 0.79 0.73 0.77 0.94 1.48 2.35 2.43 2.47 2.68 3.18 3.05 2.43 2.15 2.20 2.77 2.80 2.53 2.07
0.92 0.93 0.93 0.78 0.52 0.27 0.24 0.29 0.76 1.25 1.07 1.13 0.31 0.38 0.23 0.23 0.20 0.40 0.32 0.15 0.27 0.23 0.16 0.32 0.31 0.46 0.55 0.66 0.78 0.69 1.00 1.46 2.17 2.43 2.43 2.64 2.87 3.14 2.69 2.19 2.39 2.25 1.87 1.82
1.50 1.24 0.90 0.77 0.36 0.24 0.29 0.74 1.61 1.72 1.56 0.79 0.23 0.16 0.15 0.11 0.10 0.26 0.38 0.25 0.36 0.49 0.30 0.37 0.59 0.56 0.66 0.78 0.60 0.61 0.89 1.03 1.50 1.69 2.08 2.19 1.76 2.01 2.11 1.96 1.92 2.03 1.97 1.73
1.60 2.00 1.15 0.63 0.28 0.34 0.35 0.69 1.41 1.50 0.59 0.50 0.20 0.26 0.19 0.21 0.19 0.19 0.35 0.47 0.72 0.98 0.55 0.51 0.81 1.02 1.05 0.88 0.85 0.56 0.82 0.91 0.89 0.91 0.96 1.34 1.55 1.91 1.85 1.67 1.57 1.53 1.43 1.55
0.68 1.18 0.58 0.28 0.08 0.16 0.34 0.54 0.47 0.82 0.32 0.50 0.38 0.31 0.39 0.41 0.39 0.28 0.38 0.71 0.96 1.05 0.91 0.79 0.86 1.20 1.12 0.89 0.99 0.92 0.87 0.97 0.78 0.81 0.51 0.46 0.50 0.63 0.81 0.88 0.87 0.99 1.26 1.20
0.17 0.62 0.30 0.16 0.13 0.07 0.08 0.15 0.45 0.76 0.92 0.60 0.31 0.28 0.69 0.68 0.62 0.63 0.67 0.88 1.00 0.91 1.11 0.97 0.90 0.92 0.86 0.72 0.88 0.94 0.79 0.58 0.53 0.62 0.55 0.21 0.21 0.25 0.34 0.27 0.25 0.26 0.42 0.57
0.01 0.21 0.30 0.23 0.26 0.10 0.04 0.15 0.25 0.50 0.69 1.07 0.40 0.25 0.40 0.51 0.55 0.71 0.59 0.76 0.80 0.88 0.84 0.76 0.69 0.63 0.58 0.42 0.60 0.84 0.71 0.56 0.47 0.49 0.54 0.27 0.20 0.19 0.23 0.20 0.09 0.10 0.08 0.09
0.00 0.06 0.12 0.14 0.03 0.01 0.02 0.01 0.08 0.61 0.47 0.61 0.53 0.27 0.05 0.17 0.41 0.35 0.41 0.45 0.43 0.51 0.56 0.54 0.56 0.53 0.33 0.46 0.71 1.21 1.09 0.74 0.47 0.47 0.46 0.38 0.21 0.21 0.19 0.21 0.12 0.11 0.10 0.06
0.00 0.05 0.16 0.20 0.16 0.06 0.06 0.02 0.11 0.27 0.59 0.41 0.52 0.12 0.01 0.13 0.25 0.16 0.26 0.41 0.22 0.14 0.23 0.31 0.45 0.76 0.26 0.49 0.78 1.21 1.14 0.76 0.52 0.56 0.47 0.45 0.31 0.29 0.21 0.23 0.15 0.11 0.11 0.08
0.01 0.03 0.06 0.13 0.11 0.20 0.18 0.03 0.10 0.44 0.63 0.15 0.09 0.01 0.00 0.09 0.10 0.10 0.30 0.47 0.16 0.14 0.23 0.27 0.17 0.16 0.29 0.79 0.94 0.88 1.12 1.00 0.80 0.66 0.60 0.47 0.46 0.36 0.29 0.24 0.16 0.11 0.09 0.08
0.04 0.05 0.02 0.02 0.06 0.22 0.20 0.08 0.07 0.32 0.17 0.26 0.07 0.01 0.01 0.03 0.17 0.32 0.67 0.63 0.16 0.16 0.15 0.14 0.14 0.21 0.30 1.02 0.91 1.04 1.09 1.35 1.14 0.93 0.84 0.67 0.44 0.36 0.33 0.27 0.18 0.14 0.09 0.06
0.05 0.11 0.07 0.06 0.05 0.10 0.16 0.04 0.06 0.06 0.02 0.02 0.01 0.00 0.01 0.03 0.31 0.23 0.68 0.75 0.30 0.20 0.13 0.10 0.15 0.21 0.30 0.68 0.86 0.84 1.33 1.61 1.27 1.06 0.92 0.80 0.43 0.35 0.34 0.33 0.19 0.14 0.13 0.12
0.06 0.11 0.18 0.08 0.04 0.11 0.13 0.04 0.02 0.01 0.00 0.01 0.01 0.01 0.02 0.12 0.53 0.31 0.49 0.52 0.32 0.25 0.13 0.10 0.17 0.52 0.27 0.50 0.84 1.08 1.38 1.39 1.34 1.27 1.10 0.88 0.50 0.41 0.38 0.31 0.24 0.17 0.14 0.15
0.02 0.07 0.24 0.12 0.10 0.25 0.13 0.02 0.00 0.00 0.00 0.00 0.01 0.01 0.04 0.23 0.83 0.33 0.28 0.72 0.52 0.18 0.12 0.37 0.52 0.46 0.31 0.70 1.25 1.14 1.44 1.04 1.05 1.22 1.21 1.14 0.87 0.72 0.62 0.51 0.45 0.33 0.30 0.29
0.01 0.06 0.21 0.18 0.17 0.09 0.01 0.00 0.00 0.00 0.00 0.00 0.03 0.01 0.02 0.07 0.21 0.26 0.14 0.79 0.68 0.35 0.45 0.44 0.51 0.58 0.50 0.60 0.81 0.77 0.93 1.05 1.14 1.40 1.35 1.25 0.99 0.87 1.01 1.07 0.88 0.75 0.73 0.69
0.02 0.03 0.18 0.14 0.12 0.01 0.01 0.00 0.00 0.02 0.01 0.00 0.04 0.03 0.01 0.02 0.04 0.10 0.33 0.44 0.40 0.47 0.48 0.62 0.75 0.77 0.62 0.57 0.70 1.12 1.57 1.36 1.31 1.25 1.30 1.18 1.04 0.79 0.82 0.72 0.77 0.72 0.63 0.68
0.07 0.10 0.21 0.19 0.23 0.01 0.00 0.00 0.00 0.00 0.01 0.00 0.02 0.05 0.01 0.01 0.00 0.04 0.27 0.32 0.24 0.31 0.42 0.44 0.54 0.63 0.62 0.69 1.15 1.48 1.51 1.37 1.32 1.27 1.06 0.89 0.72 0.78 0.70 0.70 0.53 0.61 0.53 0.41
0.02 0.04 0.06 0.08 0.14 0.02 0.00 0.00 0.00 0.00 0.00 0.00 0.00 0.04 0.04 0.00 0.00 0.01 0.13 0.26 0.20 0.24 0.29 0.19 0.40 0.89 1.04 0.83 0.92 0.89 0.86 0.77 0.53 0.61 0.53 0.53 0.32 0.33 0.42 0.27 0.26 0.24 0.20 0.13
0.00 0.00 0.00 0.00 0.00 0.00 0.00 0.00 0.00 0.00 0.00 0.00 0.01 0.01 0.01 0.02 0.05 0.05 0.05 0.04 0.03 0.09 0.22 0.10 0.12 0.18 0.26 0.30 0.22 0.21 0.24 0.24 0.17 0.13 0.10 0.05 0.01 0.00 0.01 0.00 0.00 0.00 0.00 0.00
0.00 0.00 0.00 0.00 0.00 0.00 0.00 0.00 0.00 0.00 0.00 0.00 0.02 0.02 0.00 0.00 0.00 0.00 0.01 0.03 0.02 0.04 0.06 0.06 0.06 0.06 0.09 0.09 0.12 0.12 0.07 0.09 0.07 0.04 0.03 0.01 0.00 0.00 0.00 0.00 0.00 0.00 0.00 0.01
0.01 0.00 0.00 0.00 0.00 0.00 0.00 0.00 0.00 0.00 0.00 0.00 0.00 0.00 0.00 0.00 0.00 0.00 0.00 0.00 0.02 0.02 0.04 0.08 0.11 0.11 0.07 0.04 0.05 0.09 0.08 0.07 0.06 0.03 0.02 0.01 0.01 0.01 0.01 0.01 0.02 0.01 0.01 0.03
0.00 0.00 0.00 0.00 0.00 0.00 0.00 0.00 0.00 0.00 0.00 0.00 0.00 0.00 0.00 0.00 0.00 0.00 0.00 0.00 0.01 0.00 0.00 0.02 0.07 0.14 0.20 0.20 0.19 0.16 0.12 0.09 0.06 0.05 0.03 0.04 0.03 0.02 0.03 0.04 0.04 0.07 0.05 0.06